GEFSNGP_prec_meanprecacc_180.txt.gz
Total_Precipitation_Accumulation
0.28 0.28 0.32 0.34 0.27 0.27 0.35 0.37 0.29 0.14 0.10 0.11 0.08 0.06 0.06 0.05 0.04 0.04 0.04 0.04 0.04 0.05 0.06 0.07 0.08 0.09 0.11 0.12 0.14 0.20 0.30 0.40 0.45 0.48 0.54 0.56 0.53 0.50 0.58 0.70 0.77 0.79 0.77 0.76
0.20 0.16 0.21 0.24 0.18 0.16 0.17 0.15 0.16 0.12 0.10 0.10 0.08 0.06 0.05 0.05 0.05 0.04 0.04 0.03 0.04 0.05 0.07 0.08 0.08 0.09 0.09 0.11 0.15 0.18 0.25 0.33 0.40 0.52 0.61 0.70 0.67 0.63 0.64 0.71 0.75 0.74 0.72 0.70
0.34 0.18 0.29 0.34 0.19 0.15 0.14 0.11 0.11 0.14 0.12 0.08 0.06 0.05 0.05 0.06 0.08 0.07 0.05 0.04 0.04 0.05 0.07 0.08 0.08 0.08 0.09 0.11 0.14 0.17 0.24 0.33 0.36 0.46 0.55 0.62 0.63 0.64 0.62 0.56 0.53 0.55 0.58 0.54
0.48 0.39 0.58 0.30 0.13 0.12 0.13 0.12 0.11 0.11 0.09 0.08 0.07 0.06 0.05 0.06 0.08 0.07 0.07 0.07 0.07 0.07 0.06 0.05 0.06 0.07 0.08 0.09 0.11 0.16 0.22 0.31 0.32 0.39 0.47 0.48 0.51 0.53 0.53 0.44 0.42 0.46 0.43 0.35
0.65 0.53 0.33 0.16 0.12 0.16 0.19 0.20 0.14 0.10 0.08 0.06 0.06 0.08 0.08 0.09 0.07 0.08 0.08 0.08 0.08 0.08 0.06 0.05 0.05 0.05 0.06 0.07 0.08 0.13 0.19 0.26 0.29 0.33 0.42 0.41 0.41 0.45 0.46 0.44 0.38 0.33 0.31 0.26
0.73 0.56 0.30 0.17 0.10 0.12 0.19 0.26 0.13 0.09 0.09 0.08 0.09 0.20 0.16 0.13 0.09 0.08 0.06 0.06 0.07 0.06 0.04 0.03 0.03 0.03 0.03 0.05 0.08 0.11 0.14 0.19 0.23 0.24 0.30 0.30 0.30 0.31 0.33 0.32 0.30 0.27 0.23 0.21
0.61 0.44 0.20 0.13 0.11 0.14 0.33 0.36 0.15 0.10 0.10 0.10 0.16 0.24 0.19 0.12 0.10 0.07 0.06 0.05 0.05 0.05 0.04 0.03 0.03 0.03 0.03 0.04 0.06 0.08 0.10 0.13 0.17 0.18 0.20 0.22 0.25 0.27 0.27 0.27 0.26 0.24 0.21 0.18
0.49 0.49 0.24 0.12 0.17 0.31 0.35 0.18 0.11 0.09 0.08 0.09 0.09 0.08 0.07 0.08 0.08 0.06 0.05 0.05 0.04 0.04 0.03 0.02 0.03 0.04 0.03 0.03 0.05 0.06 0.08 0.11 0.15 0.18 0.16 0.19 0.21 0.24 0.23 0.26 0.27 0.25 0.22 0.21
0.35 0.27 0.17 0.14 0.20 0.22 0.16 0.11 0.08 0.08 0.08 0.09 0.08 0.07 0.08 0.08 0.08 0.07 0.06 0.05 0.04 0.04 0.03 0.02 0.03 0.04 0.04 0.04 0.06 0.05 0.06 0.08 0.13 0.18 0.15 0.17 0.19 0.23 0.23 0.25 0.30 0.31 0.27 0.24
0.16 0.10 0.08 0.09 0.11 0.12 0.10 0.08 0.06 0.06 0.08 0.08 0.07 0.07 0.07 0.08 0.08 0.08 0.07 0.06 0.05 0.04 0.04 0.04 0.03 0.03 0.04 0.04 0.06 0.06 0.05 0.07 0.11 0.16 0.17 0.16 0.18 0.21 0.23 0.25 0.39 0.45 0.38 0.32
0.11 0.05 0.04 0.05 0.07 0.08 0.08 0.06 0.04 0.04 0.05 0.05 0.05 0.05 0.06 0.08 0.08 0.08 0.09 0.07 0.05 0.04 0.04 0.04 0.03 0.03 0.04 0.04 0.06 0.07 0.07 0.08 0.10 0.14 0.17 0.17 0.18 0.19 0.22 0.25 0.44 0.58 0.48 0.45
0.10 0.05 0.05 0.04 0.04 0.04 0.06 0.06 0.04 0.04 0.04 0.03 0.03 0.04 0.05 0.06 0.08 0.08 0.07 0.07 0.06 0.04 0.04 0.05 0.04 0.04 0.04 0.05 0.06 0.09 0.10 0.10 0.12 0.15 0.18 0.18 0.19 0.20 0.25 0.27 0.34 0.36 0.38 0.44
0.09 0.05 0.05 0.03 0.03 0.03 0.05 0.06 0.05 0.05 0.05 0.04 0.03 0.04 0.05 0.06 0.07 0.07 0.05 0.05 0.06 0.06 0.05 0.05 0.05 0.04 0.05 0.06 0.07 0.10 0.12 0.13 0.15 0.16 0.18 0.19 0.20 0.23 0.26 0.26 0.27 0.28 0.29 0.34
0.06 0.06 0.05 0.03 0.03 0.03 0.05 0.05 0.05 0.05 0.04 0.04 0.04 0.04 0.06 0.07 0.07 0.07 0.06 0.05 0.05 0.06 0.06 0.06 0.05 0.05 0.05 0.07 0.08 0.11 0.13 0.16 0.18 0.18 0.18 0.19 0.21 0.23 0.26 0.28 0.29 0.26 0.27 0.30
0.05 0.06 0.06 0.04 0.03 0.03 0.04 0.04 0.06 0.06 0.05 0.04 0.03 0.04 0.06 0.08 0.08 0.06 0.06 0.05 0.04 0.04 0.05 0.06 0.06 0.06 0.06 0.08 0.10 0.12 0.16 0.18 0.20 0.21 0.20 0.20 0.21 0.23 0.25 0.27 0.28 0.28 0.28 0.32
0.06 0.05 0.04 0.04 0.04 0.04 0.04 0.05 0.06 0.05 0.06 0.05 0.04 0.04 0.06 0.08 0.08 0.07 0.06 0.04 0.04 0.04 0.04 0.05 0.06 0.06 0.07 0.09 0.12 0.15 0.19 0.24 0.27 0.25 0.24 0.24 0.23 0.25 0.27 0.30 0.30 0.30 0.32 0.31
0.10 0.07 0.06 0.05 0.04 0.04 0.05 0.06 0.06 0.06 0.06 0.06 0.05 0.05 0.06 0.07 0.09 0.08 0.06 0.05 0.05 0.04 0.04 0.05 0.06 0.07 0.08 0.11 0.14 0.18 0.21 0.24 0.28 0.28 0.27 0.28 0.31 0.32 0.33 0.36 0.37 0.34 0.30 0.31
0.11 0.10 0.08 0.08 0.08 0.07 0.06 0.06 0.06 0.06 0.06 0.07 0.06 0.06 0.08 0.10 0.11 0.10 0.09 0.07 0.07 0.06 0.06 0.05 0.08 0.08 0.09 0.13 0.17 0.19 0.23 0.26 0.26 0.28 0.31 0.35 0.39 0.40 0.41 0.41 0.39 0.36 0.31 0.32
0.09 0.09 0.08 0.08 0.09 0.09 0.08 0.07 0.06 0.06 0.06 0.07 0.08 0.08 0.10 0.13 0.15 0.15 0.12 0.11 0.10 0.10 0.10 0.09 0.12 0.11 0.11 0.16 0.23 0.24 0.27 0.31 0.32 0.31 0.33 0.40 0.42 0.38 0.41 0.42 0.42 0.40 0.36 0.35
0.09 0.10 0.11 0.10 0.10 0.10 0.10 0.08 0.07 0.06 0.07 0.08 0.09 0.09 0.10 0.12 0.15 0.17 0.16 0.14 0.13 0.13 0.13 0.14 0.14 0.13 0.17 0.23 0.31 0.30 0.30 0.32 0.35 0.37 0.39 0.41 0.42 0.42 0.43 0.43 0.44 0.45 0.43 0.39
0.11 0.13 0.13 0.12 0.11 0.10 0.10 0.10 0.09 0.09 0.09 0.10 0.12 0.14 0.14 0.15 0.17 0.19 0.19 0.17 0.16 0.16 0.17 0.18 0.18 0.22 0.28 0.34 0.35 0.31 0.30 0.33 0.36 0.41 0.45 0.45 0.47 0.48 0.48 0.48 0.48 0.48 0.46 0.43
0.13 0.15 0.15 0.14 0.14 0.12 0.11 0.12 0.12 0.12 0.12 0.12 0.14 0.16 0.17 0.19 0.20 0.20 0.20 0.20 0.21 0.24 0.21 0.18 0.19 0.27 0.36 0.37 0.32 0.30 0.30 0.33 0.38 0.44 0.49 0.50 0.53 0.55 0.53 0.52 0.53 0.50 0.45 0.44
0.17 0.19 0.19 0.19 0.20 0.19 0.17 0.17 0.17 0.16 0.16 0.15 0.17 0.18 0.20 0.22 0.23 0.24 0.24 0.23 0.24 0.25 0.24 0.21 0.23 0.30 0.35 0.31 0.29 0.30 0.31 0.36 0.41 0.48 0.51 0.54 0.57 0.59 0.59 0.57 0.56 0.54 0.50 0.46
0.22 0.23 0.24 0.25 0.25 0.24 0.22 0.20 0.19 0.19 0.19 0.19 0.20 0.22 0.23 0.24 0.25 0.26 0.27 0.27 0.28 0.28 0.26 0.26 0.27 0.31 0.33 0.30 0.29 0.34 0.38 0.43 0.50 0.56 0.58 0.59 0.60 0.61 0.62 0.62 0.63 0.57 0.50 0.47
0.27 0.27 0.27 0.27 0.28 0.28 0.26 0.23 0.20 0.20 0.19 0.20 0.20 0.21 0.21 0.25 0.30 0.31 0.30 0.28 0.29 0.30 0.28 0.30 0.31 0.34 0.34 0.33 0.35 0.40 0.44 0.50 0.62 0.72 0.72 0.67 0.63 0.64 0.62 0.62 0.63 0.59 0.54 0.50
0.33 0.34 0.35 0.35 0.35 0.33 0.31 0.28 0.26 0.25 0.24 0.23 0.22 0.22 0.24 0.27 0.32 0.34 0.33 0.31 0.31 0.33 0.33 0.35 0.36 0.37 0.38 0.39 0.42 0.45 0.50 0.55 0.65 0.70 0.66 0.63 0.62 0.64 0.63 0.63 0.61 0.59 0.56 0.53
0.38 0.37 0.36 0.37 0.37 0.36 0.36 0.36 0.35 0.34 0.33 0.32 0.30 0.28 0.29 0.31 0.34 0.34 0.32 0.31 0.32 0.33 0.34 0.38 0.39 0.40 0.41 0.44 0.49 0.52 0.53 0.57 0.67 0.76 0.72 0.66 0.64 0.65 0.62 0.61 0.60 0.59 0.57 0.54

GEFSNGP_prec_meanprecacc_186.txt.gz
Total_Precipitation_Accumulation
0.28 0.28 0.33 0.35 0.29 0.29 0.38 0.40 0.32 0.16 0.13 0.14 0.11 0.09 0.08 0.08 0.07 0.08 0.10 0.09 0.07 0.08 0.08 0.10 0.14 0.16 0.16 0.15 0.18 0.26 0.37 0.48 0.55 0.60 0.68 0.72 0.71 0.69 0.75 0.87 0.90 0.90 0.92 0.92
0.21 0.16 0.22 0.25 0.18 0.18 0.19 0.17 0.18 0.13 0.13 0.14 0.12 0.09 0.08 0.08 0.08 0.09 0.09 0.07 0.07 0.07 0.08 0.10 0.12 0.14 0.13 0.15 0.18 0.23 0.32 0.40 0.50 0.64 0.74 0.84 0.84 0.83 0.83 0.87 0.90 0.87 0.85 0.85
0.36 0.18 0.30 0.34 0.19 0.16 0.16 0.13 0.12 0.15 0.14 0.11 0.09 0.08 0.07 0.08 0.10 0.10 0.07 0.06 0.05 0.06 0.08 0.10 0.11 0.12 0.13 0.15 0.18 0.21 0.29 0.38 0.44 0.57 0.68 0.75 0.78 0.80 0.78 0.70 0.66 0.69 0.71 0.67
0.53 0.41 0.60 0.31 0.14 0.12 0.14 0.13 0.12 0.12 0.11 0.10 0.10 0.09 0.07 0.09 0.10 0.08 0.08 0.08 0.07 0.07 0.07 0.08 0.09 0.10 0.11 0.11 0.14 0.20 0.27 0.37 0.40 0.48 0.58 0.61 0.64 0.67 0.67 0.56 0.52 0.58 0.57 0.47
0.72 0.57 0.34 0.16 0.12 0.16 0.20 0.21 0.14 0.11 0.09 0.08 0.08 0.09 0.10 0.11 0.09 0.09 0.08 0.08 0.08 0.08 0.07 0.06 0.07 0.08 0.08 0.09 0.11 0.17 0.24 0.32 0.37 0.42 0.53 0.52 0.52 0.57 0.57 0.55 0.48 0.44 0.46 0.39
0.81 0.62 0.31 0.17 0.10 0.12 0.19 0.26 0.13 0.10 0.10 0.10 0.11 0.21 0.18 0.15 0.11 0.09 0.06 0.06 0.07 0.06 0.04 0.04 0.04 0.05 0.05 0.07 0.10 0.14 0.19 0.25 0.29 0.33 0.41 0.40 0.40 0.42 0.43 0.42 0.40 0.37 0.36 0.32
0.66 0.49 0.21 0.13 0.12 0.14 0.34 0.37 0.15 0.10 0.10 0.11 0.17 0.26 0.21 0.14 0.11 0.08 0.06 0.05 0.05 0.05 0.04 0.03 0.04 0.04 0.04 0.05 0.08 0.11 0.15 0.20 0.24 0.26 0.30 0.32 0.34 0.36 0.37 0.38 0.37 0.35 0.32 0.28
0.52 0.54 0.26 0.12 0.18 0.32 0.36 0.19 0.11 0.09 0.08 0.09 0.10 0.09 0.08 0.09 0.08 0.06 0.05 0.05 0.04 0.04 0.03 0.03 0.03 0.04 0.03 0.04 0.07 0.09 0.13 0.17 0.21 0.25 0.25 0.28 0.30 0.33 0.33 0.36 0.39 0.36 0.34 0.31
0.36 0.28 0.17 0.14 0.21 0.23 0.16 0.11 0.08 0.08 0.08 0.09 0.08 0.07 0.08 0.09 0.08 0.07 0.06 0.06 0.05 0.04 0.04 0.03 0.03 0.04 0.04 0.05 0.08 0.10 0.12 0.14 0.19 0.23 0.20 0.25 0.29 0.34 0.34 0.36 0.41 0.42 0.39 0.35
0.17 0.10 0.08 0.09 0.12 0.12 0.11 0.08 0.06 0.06 0.08 0.08 0.08 0.07 0.08 0.08 0.08 0.09 0.07 0.06 0.05 0.04 0.04 0.04 0.03 0.03 0.04 0.06 0.09 0.10 0.11 0.11 0.16 0.21 0.21 0.22 0.26 0.33 0.35 0.36 0.48 0.54 0.48 0.43
0.12 0.05 0.04 0.05 0.07 0.08 0.09 0.07 0.04 0.04 0.05 0.05 0.05 0.05 0.07 0.09 0.09 0.09 0.09 0.07 0.05 0.04 0.05 0.05 0.03 0.03 0.04 0.06 0.09 0.11 0.11 0.12 0.15 0.21 0.24 0.24 0.26 0.29 0.33 0.34 0.52 0.65 0.55 0.54
0.11 0.05 0.06 0.04 0.04 0.05 0.06 0.06 0.05 0.05 0.04 0.03 0.03 0.05 0.05 0.07 0.09 0.08 0.08 0.08 0.06 0.04 0.04 0.05 0.04 0.04 0.05 0.06 0.09 0.12 0.14 0.15 0.19 0.24 0.27 0.27 0.27 0.29 0.34 0.34 0.41 0.43 0.44 0.49
0.09 0.05 0.05 0.03 0.03 0.03 0.06 0.06 0.05 0.05 0.05 0.04 0.03 0.04 0.06 0.06 0.08 0.08 0.06 0.06 0.07 0.06 0.05 0.05 0.05 0.05 0.05 0.07 0.10 0.13 0.16 0.19 0.23 0.26 0.28 0.29 0.27 0.30 0.34 0.34 0.35 0.35 0.35 0.39
0.06 0.06 0.06 0.03 0.03 0.03 0.05 0.05 0.05 0.05 0.04 0.04 0.04 0.04 0.06 0.07 0.08 0.08 0.07 0.06 0.06 0.07 0.06 0.06 0.05 0.05 0.06 0.08 0.11 0.14 0.17 0.21 0.26 0.29 0.29 0.28 0.27 0.29 0.32 0.36 0.38 0.36 0.35 0.37
0.05 0.06 0.06 0.04 0.03 0.03 0.04 0.05 0.06 0.06 0.05 0.04 0.04 0.05 0.07 0.09 0.08 0.07 0.06 0.05 0.05 0.05 0.05 0.06 0.06 0.06 0.06 0.09 0.12 0.16 0.20 0.23 0.28 0.30 0.30 0.27 0.26 0.27 0.28 0.31 0.35 0.37 0.38 0.41
0.06 0.05 0.04 0.04 0.04 0.04 0.04 0.05 0.06 0.06 0.06 0.05 0.05 0.05 0.06 0.08 0.09 0.08 0.06 0.05 0.05 0.05 0.05 0.06 0.06 0.07 0.08 0.11 0.14 0.18 0.23 0.30 0.35 0.33 0.32 0.30 0.28 0.29 0.30 0.33 0.37 0.39 0.41 0.41
0.11 0.08 0.06 0.05 0.04 0.05 0.05 0.06 0.07 0.06 0.06 0.06 0.05 0.05 0.06 0.08 0.09 0.09 0.07 0.06 0.06 0.05 0.05 0.06 0.07 0.08 0.09 0.12 0.17 0.22 0.26 0.29 0.35 0.34 0.34 0.34 0.35 0.35 0.36 0.40 0.43 0.42 0.39 0.42
0.11 0.10 0.08 0.08 0.08 0.07 0.06 0.06 0.06 0.06 0.07 0.07 0.06 0.07 0.08 0.10 0.12 0.11 0.09 0.08 0.08 0.08 0.07 0.07 0.09 0.10 0.10 0.15 0.20 0.23 0.27 0.30 0.30 0.32 0.37 0.40 0.43 0.42 0.43 0.45 0.45 0.44 0.40 0.41
0.09 0.09 0.08 0.08 0.09 0.09 0.08 0.07 0.06 0.06 0.07 0.07 0.08 0.09 0.11 0.14 0.16 0.16 0.14 0.13 0.12 0.12 0.12 0.11 0.14 0.13 0.14 0.19 0.26 0.27 0.29 0.33 0.34 0.34 0.37 0.44 0.45 0.40 0.43 0.46 0.48 0.47 0.43 0.42
0.09 0.10 0.11 0.10 0.10 0.10 0.10 0.08 0.07 0.07 0.07 0.08 0.09 0.10 0.11 0.13 0.17 0.19 0.18 0.16 0.15 0.15 0.15 0.16 0.16 0.15 0.19 0.25 0.34 0.33 0.32 0.34 0.37 0.39 0.42 0.44 0.44 0.44 0.45 0.47 0.50 0.52 0.50 0.45
0.11 0.13 0.13 0.12 0.11 0.10 0.10 0.10 0.09 0.09 0.10 0.11 0.14 0.15 0.16 0.17 0.19 0.21 0.21 0.19 0.17 0.18 0.19 0.20 0.20 0.24 0.30 0.36 0.38 0.33 0.32 0.34 0.38 0.43 0.47 0.48 0.49 0.50 0.51 0.51 0.53 0.54 0.53 0.50
0.14 0.15 0.15 0.14 0.14 0.12 0.11 0.12 0.12 0.12 0.12 0.13 0.15 0.18 0.20 0.21 0.22 0.23 0.23 0.22 0.23 0.26 0.24 0.20 0.21 0.29 0.38 0.39 0.34 0.31 0.32 0.35 0.39 0.46 0.51 0.52 0.55 0.57 0.56 0.55 0.58 0.56 0.52 0.50
0.18 0.19 0.19 0.19 0.20 0.19 0.17 0.17 0.18 0.17 0.17 0.17 0.19 0.21 0.23 0.25 0.26 0.27 0.26 0.25 0.26 0.28 0.26 0.23 0.24 0.32 0.37 0.34 0.31 0.31 0.33 0.37 0.42 0.49 0.53 0.56 0.60 0.61 0.62 0.60 0.60 0.59 0.56 0.52
0.22 0.23 0.24 0.25 0.25 0.24 0.22 0.21 0.20 0.20 0.21 0.21 0.23 0.25 0.26 0.27 0.26 0.28 0.29 0.30 0.31 0.31 0.28 0.28 0.29 0.33 0.36 0.32 0.32 0.36 0.39 0.44 0.51 0.57 0.59 0.61 0.63 0.64 0.65 0.66 0.68 0.63 0.56 0.52
0.27 0.27 0.27 0.28 0.29 0.29 0.27 0.24 0.21 0.21 0.21 0.22 0.23 0.23 0.24 0.28 0.33 0.34 0.32 0.31 0.31 0.32 0.30 0.32 0.34 0.37 0.36 0.35 0.37 0.42 0.46 0.52 0.63 0.74 0.74 0.70 0.67 0.68 0.66 0.67 0.69 0.66 0.60 0.56
0.33 0.34 0.35 0.36 0.35 0.34 0.31 0.29 0.27 0.26 0.26 0.25 0.24 0.24 0.25 0.30 0.35 0.38 0.36 0.33 0.33 0.35 0.35 0.37 0.39 0.41 0.40 0.41 0.43 0.47 0.51 0.57 0.67 0.72 0.68 0.65 0.66 0.69 0.68 0.68 0.67 0.66 0.62 0.59
0.38 0.37 0.36 0.37 0.37 0.36 0.37 0.37 0.37 0.36 0.36 0.34 0.32 0.30 0.31 0.35 0.38 0.38 0.35 0.33 0.34 0.35 0.37 0.40 0.42 0.42 0.44 0.46 0.50 0.54 0.55 0.58 0.69 0.78 0.74 0.69 0.68 0.69 0.67 0.67 0.66 0.65 0.63 0.60

GEFSNGP_prec_meanprecacc_192.txt.gz
Total_Precipitation_Accumulation
0.29 0.29 0.33 0.36 0.29 0.30 0.40 0.42 0.35 0.19 0.16 0.19 0.15 0.11 0.09 0.08 0.08 0.08 0.11 0.10 0.09 0.10 0.11 0.13 0.17 0.19 0.19 0.19 0.22 0.29 0.41 0.52 0.59 0.65 0.73 0.78 0.79 0.79 0.85 0.98 1.03 1.00 1.01 1.02
0.23 0.16 0.22 0.26 0.19 0.18 0.19 0.18 0.19 0.15 0.16 0.19 0.16 0.11 0.09 0.09 0.09 0.09 0.10 0.08 0.08 0.09 0.11 0.12 0.15 0.17 0.17 0.18 0.22 0.28 0.37 0.45 0.55 0.69 0.80 0.91 0.91 0.92 0.93 0.98 1.04 1.01 0.96 0.96
0.39 0.18 0.31 0.36 0.19 0.16 0.16 0.14 0.14 0.18 0.18 0.14 0.13 0.11 0.09 0.09 0.11 0.10 0.08 0.07 0.07 0.08 0.10 0.12 0.13 0.14 0.15 0.18 0.22 0.26 0.36 0.44 0.50 0.63 0.75 0.85 0.87 0.88 0.88 0.80 0.80 0.86 0.87 0.81
0.58 0.44 0.63 0.31 0.14 0.13 0.14 0.14 0.13 0.14 0.14 0.13 0.13 0.11 0.09 0.10 0.10 0.09 0.09 0.09 0.09 0.09 0.09 0.09 0.11 0.12 0.12 0.13 0.17 0.24 0.32 0.44 0.46 0.55 0.66 0.71 0.75 0.78 0.78 0.68 0.67 0.75 0.73 0.61
0.80 0.61 0.35 0.16 0.12 0.16 0.20 0.22 0.15 0.13 0.11 0.10 0.10 0.11 0.12 0.13 0.10 0.09 0.09 0.09 0.09 0.09 0.09 0.09 0.10 0.11 0.11 0.11 0.13 0.20 0.27 0.37 0.42 0.48 0.61 0.62 0.63 0.70 0.70 0.68 0.63 0.59 0.59 0.54
0.89 0.66 0.33 0.17 0.10 0.12 0.20 0.28 0.14 0.11 0.11 0.11 0.12 0.23 0.20 0.18 0.13 0.09 0.07 0.07 0.08 0.08 0.07 0.08 0.09 0.09 0.08 0.08 0.11 0.16 0.23 0.30 0.33 0.37 0.48 0.50 0.49 0.55 0.57 0.54 0.52 0.49 0.48 0.47
0.71 0.53 0.22 0.13 0.12 0.14 0.34 0.38 0.16 0.11 0.11 0.12 0.18 0.27 0.23 0.16 0.13 0.10 0.08 0.07 0.07 0.08 0.08 0.08 0.08 0.08 0.06 0.06 0.09 0.14 0.19 0.23 0.27 0.30 0.35 0.38 0.41 0.45 0.48 0.47 0.47 0.46 0.45 0.42
0.54 0.59 0.28 0.13 0.18 0.32 0.37 0.20 0.13 0.11 0.09 0.10 0.11 0.10 0.10 0.11 0.10 0.09 0.08 0.08 0.07 0.07 0.06 0.06 0.06 0.06 0.05 0.05 0.09 0.12 0.16 0.20 0.24 0.29 0.29 0.33 0.36 0.40 0.41 0.45 0.50 0.50 0.46 0.42
0.39 0.30 0.18 0.15 0.21 0.24 0.17 0.13 0.10 0.10 0.09 0.10 0.09 0.08 0.09 0.10 0.09 0.08 0.08 0.08 0.06 0.06 0.05 0.05 0.05 0.06 0.05 0.06 0.09 0.12 0.15 0.17 0.23 0.27 0.25 0.30 0.35 0.41 0.42 0.46 0.54 0.54 0.49 0.44
0.18 0.11 0.08 0.10 0.12 0.13 0.12 0.09 0.08 0.08 0.10 0.09 0.08 0.07 0.08 0.09 0.09 0.09 0.08 0.07 0.06 0.05 0.05 0.05 0.04 0.04 0.05 0.07 0.11 0.13 0.15 0.16 0.20 0.26 0.27 0.27 0.32 0.40 0.42 0.44 0.59 0.64 0.59 0.52
0.13 0.05 0.05 0.06 0.07 0.09 0.10 0.08 0.06 0.07 0.08 0.07 0.06 0.06 0.07 0.09 0.09 0.09 0.09 0.08 0.06 0.04 0.05 0.05 0.04 0.04 0.05 0.08 0.12 0.14 0.15 0.16 0.20 0.26 0.30 0.29 0.31 0.35 0.39 0.40 0.59 0.74 0.65 0.64
0.12 0.05 0.06 0.05 0.04 0.05 0.07 0.07 0.06 0.07 0.07 0.05 0.04 0.05 0.06 0.07 0.09 0.09 0.08 0.08 0.07 0.05 0.05 0.05 0.05 0.05 0.06 0.08 0.12 0.16 0.19 0.21 0.24 0.29 0.32 0.32 0.33 0.35 0.40 0.39 0.46 0.49 0.52 0.58
0.09 0.06 0.05 0.04 0.03 0.04 0.06 0.06 0.05 0.06 0.08 0.08 0.05 0.05 0.06 0.07 0.08 0.08 0.07 0.07 0.07 0.07 0.06 0.06 0.05 0.05 0.06 0.09 0.13 0.17 0.22 0.25 0.28 0.31 0.34 0.34 0.33 0.35 0.40 0.39 0.39 0.40 0.42 0.48
0.06 0.07 0.06 0.04 0.03 0.03 0.05 0.05 0.05 0.05 0.05 0.07 0.07 0.05 0.06 0.08 0.08 0.08 0.07 0.06 0.06 0.07 0.07 0.06 0.06 0.06 0.07 0.10 0.14 0.18 0.22 0.26 0.30 0.34 0.35 0.33 0.30 0.32 0.37 0.41 0.45 0.44 0.46 0.49
0.05 0.07 0.07 0.05 0.03 0.03 0.04 0.05 0.06 0.06 0.05 0.05 0.06 0.07 0.08 0.09 0.09 0.08 0.07 0.06 0.05 0.06 0.06 0.07 0.07 0.07 0.07 0.11 0.14 0.19 0.24 0.27 0.32 0.36 0.36 0.32 0.29 0.31 0.33 0.36 0.42 0.47 0.52 0.57
0.07 0.06 0.05 0.05 0.04 0.04 0.04 0.05 0.06 0.06 0.06 0.06 0.05 0.06 0.08 0.09 0.10 0.09 0.07 0.06 0.06 0.05 0.06 0.07 0.07 0.08 0.09 0.12 0.17 0.22 0.27 0.34 0.40 0.39 0.38 0.34 0.32 0.33 0.35 0.38 0.41 0.46 0.52 0.54
0.11 0.08 0.06 0.06 0.05 0.05 0.05 0.06 0.07 0.07 0.06 0.06 0.06 0.06 0.07 0.09 0.10 0.10 0.08 0.07 0.07 0.06 0.06 0.07 0.08 0.09 0.10 0.14 0.20 0.27 0.31 0.35 0.41 0.41 0.40 0.38 0.39 0.39 0.40 0.42 0.46 0.47 0.48 0.53
0.11 0.11 0.09 0.09 0.08 0.08 0.07 0.06 0.06 0.07 0.07 0.07 0.07 0.08 0.09 0.11 0.13 0.13 0.11 0.10 0.10 0.09 0.09 0.08 0.11 0.12 0.12 0.17 0.24 0.29 0.33 0.36 0.35 0.38 0.42 0.44 0.46 0.45 0.46 0.46 0.47 0.49 0.47 0.50
0.09 0.10 0.09 0.08 0.09 0.10 0.08 0.07 0.07 0.06 0.07 0.08 0.09 0.09 0.11 0.14 0.17 0.18 0.15 0.14 0.13 0.13 0.13 0.14 0.17 0.15 0.16 0.22 0.29 0.31 0.35 0.38 0.39 0.39 0.42 0.49 0.48 0.43 0.45 0.48 0.51 0.52 0.49 0.49
0.09 0.10 0.11 0.10 0.10 0.10 0.10 0.08 0.07 0.07 0.08 0.09 0.10 0.11 0.12 0.14 0.18 0.20 0.19 0.17 0.16 0.16 0.17 0.18 0.18 0.17 0.21 0.28 0.37 0.36 0.36 0.38 0.40 0.44 0.47 0.47 0.47 0.46 0.48 0.50 0.54 0.57 0.55 0.52
0.12 0.13 0.13 0.12 0.11 0.10 0.10 0.10 0.09 0.09 0.10 0.11 0.14 0.16 0.17 0.18 0.20 0.22 0.22 0.20 0.19 0.20 0.21 0.22 0.21 0.25 0.32 0.39 0.41 0.36 0.35 0.37 0.40 0.46 0.51 0.51 0.52 0.53 0.53 0.54 0.57 0.59 0.58 0.55
0.14 0.15 0.15 0.15 0.14 0.12 0.11 0.12 0.13 0.13 0.13 0.14 0.16 0.19 0.21 0.23 0.24 0.24 0.24 0.24 0.25 0.28 0.25 0.21 0.22 0.31 0.41 0.42 0.36 0.34 0.34 0.37 0.42 0.48 0.54 0.55 0.57 0.60 0.58 0.58 0.61 0.60 0.56 0.55
0.18 0.19 0.19 0.19 0.20 0.19 0.17 0.18 0.18 0.18 0.18 0.19 0.21 0.23 0.25 0.27 0.28 0.29 0.27 0.26 0.27 0.29 0.27 0.24 0.26 0.34 0.40 0.36 0.32 0.33 0.35 0.39 0.44 0.51 0.55 0.58 0.62 0.64 0.64 0.63 0.64 0.64 0.61 0.57
0.22 0.23 0.25 0.25 0.26 0.24 0.23 0.22 0.21 0.22 0.23 0.24 0.25 0.27 0.29 0.29 0.28 0.29 0.30 0.31 0.32 0.32 0.29 0.29 0.31 0.35 0.39 0.34 0.33 0.37 0.41 0.46 0.53 0.59 0.63 0.64 0.67 0.67 0.68 0.70 0.73 0.69 0.61 0.57
0.27 0.28 0.28 0.28 0.29 0.29 0.28 0.24 0.22 0.22 0.23 0.24 0.25 0.25 0.26 0.29 0.34 0.35 0.33 0.31 0.32 0.33 0.31 0.33 0.35 0.38 0.38 0.37 0.38 0.43 0.47 0.54 0.66 0.76 0.77 0.74 0.71 0.71 0.70 0.71 0.74 0.71 0.65 0.61
0.34 0.35 0.35 0.36 0.36 0.34 0.33 0.30 0.29 0.28 0.27 0.27 0.25 0.25 0.27 0.31 0.36 0.39 0.36 0.34 0.34 0.36 0.36 0.38 0.40 0.42 0.42 0.42 0.44 0.48 0.53 0.59 0.70 0.75 0.72 0.69 0.70 0.73 0.72 0.73 0.72 0.71 0.68 0.64
0.38 0.37 0.36 0.37 0.37 0.37 0.38 0.39 0.39 0.39 0.38 0.37 0.34 0.31 0.32 0.36 0.39 0.39 0.36 0.34 0.35 0.36 0.37 0.41 0.43 0.43 0.44 0.47 0.51 0.55 0.57 0.61 0.72 0.81 0.78 0.73 0.72 0.73 0.71 0.72 0.71 0.71 0.69 0.66

GEFSNGP_prec_meanprecacc_198.txt.gz
Total_Precipitation_Accumulation
0.29 0.29 0.35 0.38 0.31 0.31 0.43 0.45 0.38 0.21 0.19 0.21 0.17 0.12 0.11 0.09 0.09 0.09 0.12 0.12 0.11 0.12 0.12 0.14 0.18 0.20 0.20 0.21 0.25 0.34 0.49 0.60 0.66 0.71 0.78 0.85 0.87 0.89 0.94 1.07 1.13 1.11 1.13 1.14
0.24 0.17 0.23 0.27 0.19 0.19 0.21 0.20 0.21 0.17 0.18 0.22 0.19 0.13 0.11 0.10 0.10 0.10 0.11 0.09 0.09 0.10 0.12 0.14 0.16 0.18 0.18 0.20 0.24 0.30 0.42 0.52 0.60 0.74 0.85 0.98 0.99 1.02 1.03 1.07 1.15 1.14 1.09 1.06
0.41 0.19 0.33 0.37 0.19 0.17 0.17 0.16 0.17 0.21 0.21 0.17 0.16 0.14 0.12 0.12 0.13 0.11 0.09 0.07 0.07 0.09 0.11 0.12 0.13 0.15 0.16 0.19 0.23 0.28 0.38 0.48 0.54 0.67 0.80 0.91 0.93 0.96 0.97 0.90 0.90 0.98 1.02 0.93
0.63 0.46 0.65 0.32 0.14 0.13 0.15 0.15 0.15 0.17 0.16 0.15 0.16 0.14 0.13 0.13 0.13 0.11 0.10 0.10 0.09 0.09 0.09 0.10 0.11 0.13 0.14 0.15 0.19 0.26 0.34 0.46 0.49 0.58 0.70 0.76 0.82 0.86 0.87 0.77 0.76 0.86 0.86 0.76
0.87 0.66 0.37 0.16 0.13 0.17 0.21 0.23 0.16 0.14 0.12 0.11 0.11 0.12 0.14 0.16 0.13 0.12 0.10 0.10 0.10 0.10 0.09 0.09 0.11 0.12 0.12 0.12 0.15 0.22 0.30 0.39 0.44 0.50 0.64 0.66 0.71 0.80 0.79 0.78 0.75 0.71 0.71 0.66
0.97 0.72 0.35 0.18 0.10 0.12 0.20 0.28 0.14 0.11 0.12 0.12 0.13 0.24 0.22 0.22 0.17 0.13 0.09 0.09 0.09 0.09 0.08 0.08 0.10 0.11 0.10 0.11 0.14 0.19 0.25 0.31 0.35 0.39 0.51 0.54 0.56 0.63 0.66 0.67 0.67 0.64 0.62 0.59
0.77 0.59 0.24 0.14 0.12 0.14 0.35 0.40 0.16 0.12 0.12 0.13 0.19 0.29 0.25 0.21 0.18 0.15 0.12 0.10 0.09 0.09 0.09 0.09 0.10 0.11 0.10 0.09 0.12 0.16 0.21 0.25 0.29 0.33 0.38 0.43 0.48 0.52 0.57 0.58 0.59 0.60 0.60 0.54
0.58 0.63 0.31 0.14 0.19 0.33 0.38 0.21 0.13 0.11 0.10 0.12 0.12 0.11 0.12 0.15 0.16 0.13 0.13 0.13 0.11 0.10 0.09 0.09 0.10 0.11 0.09 0.09 0.12 0.14 0.18 0.22 0.27 0.31 0.33 0.37 0.41 0.47 0.49 0.55 0.62 0.63 0.60 0.56
0.41 0.32 0.19 0.15 0.22 0.24 0.18 0.13 0.10 0.10 0.10 0.11 0.11 0.09 0.11 0.12 0.13 0.12 0.13 0.13 0.12 0.11 0.11 0.10 0.10 0.10 0.09 0.09 0.12 0.15 0.18 0.20 0.26 0.30 0.29 0.35 0.41 0.47 0.50 0.55 0.64 0.65 0.61 0.57
0.19 0.12 0.08 0.10 0.12 0.13 0.12 0.09 0.08 0.09 0.11 0.10 0.10 0.09 0.10 0.10 0.11 0.13 0.12 0.11 0.10 0.11 0.11 0.11 0.10 0.10 0.09 0.10 0.13 0.17 0.18 0.20 0.24 0.30 0.31 0.31 0.37 0.46 0.51 0.54 0.67 0.72 0.68 0.63
0.14 0.06 0.05 0.06 0.07 0.09 0.10 0.08 0.06 0.07 0.09 0.08 0.07 0.07 0.09 0.11 0.12 0.12 0.13 0.11 0.10 0.10 0.10 0.12 0.11 0.10 0.09 0.11 0.15 0.18 0.20 0.21 0.25 0.31 0.35 0.33 0.35 0.41 0.47 0.48 0.65 0.80 0.73 0.73
0.12 0.06 0.07 0.05 0.04 0.05 0.07 0.07 0.06 0.07 0.08 0.06 0.06 0.07 0.08 0.09 0.11 0.10 0.10 0.11 0.10 0.09 0.09 0.10 0.10 0.09 0.10 0.12 0.16 0.21 0.24 0.25 0.27 0.33 0.36 0.36 0.37 0.39 0.44 0.44 0.51 0.54 0.59 0.67
0.09 0.06 0.05 0.04 0.03 0.04 0.06 0.06 0.05 0.06 0.08 0.08 0.06 0.06 0.08 0.08 0.09 0.09 0.07 0.08 0.09 0.09 0.08 0.09 0.08 0.08 0.10 0.12 0.16 0.21 0.25 0.28 0.31 0.35 0.36 0.37 0.36 0.38 0.42 0.41 0.43 0.45 0.49 0.56
0.07 0.07 0.06 0.04 0.03 0.03 0.05 0.05 0.05 0.05 0.05 0.07 0.08 0.07 0.08 0.09 0.09 0.09 0.08 0.07 0.07 0.08 0.08 0.08 0.07 0.07 0.09 0.12 0.16 0.21 0.24 0.29 0.34 0.37 0.38 0.35 0.33 0.35 0.39 0.43 0.48 0.50 0.54 0.59
0.05 0.07 0.07 0.05 0.03 0.03 0.04 0.05 0.06 0.06 0.05 0.05 0.07 0.08 0.10 0.10 0.10 0.08 0.08 0.07 0.06 0.06 0.07 0.08 0.07 0.08 0.08 0.12 0.16 0.21 0.27 0.30 0.35 0.38 0.38 0.33 0.31 0.33 0.35 0.38 0.45 0.53 0.60 0.68
0.07 0.06 0.05 0.05 0.04 0.04 0.05 0.05 0.06 0.06 0.06 0.06 0.06 0.07 0.10 0.11 0.11 0.09 0.08 0.06 0.06 0.06 0.06 0.07 0.08 0.08 0.10 0.13 0.18 0.24 0.30 0.38 0.43 0.42 0.40 0.36 0.33 0.35 0.37 0.39 0.44 0.51 0.59 0.65
0.12 0.08 0.06 0.06 0.05 0.05 0.06 0.07 0.08 0.07 0.07 0.07 0.06 0.06 0.08 0.11 0.11 0.10 0.09 0.08 0.08 0.08 0.07 0.07 0.09 0.10 0.11 0.15 0.22 0.29 0.34 0.37 0.44 0.44 0.42 0.40 0.40 0.41 0.42 0.44 0.49 0.52 0.55 0.61
0.12 0.11 0.09 0.09 0.09 0.08 0.07 0.06 0.06 0.07 0.07 0.08 0.07 0.08 0.10 0.12 0.15 0.14 0.12 0.10 0.10 0.10 0.09 0.09 0.12 0.13 0.13 0.19 0.26 0.31 0.36 0.38 0.37 0.40 0.44 0.47 0.49 0.48 0.47 0.48 0.50 0.54 0.53 0.56
0.10 0.10 0.09 0.09 0.10 0.10 0.08 0.07 0.07 0.06 0.07 0.08 0.09 0.10 0.12 0.15 0.19 0.19 0.16 0.14 0.14 0.14 0.15 0.15 0.18 0.17 0.18 0.24 0.32 0.34 0.37 0.41 0.41 0.41 0.45 0.51 0.50 0.45 0.47 0.50 0.55 0.57 0.55 0.56
0.09 0.11 0.11 0.10 0.10 0.10 0.10 0.08 0.07 0.07 0.08 0.09 0.10 0.11 0.12 0.15 0.19 0.21 0.20 0.18 0.17 0.18 0.19 0.20 0.20 0.19 0.23 0.30 0.40 0.39 0.39 0.40 0.43 0.46 0.49 0.50 0.50 0.49 0.50 0.52 0.58 0.62 0.62 0.59
0.12 0.13 0.13 0.12 0.11 0.10 0.10 0.10 0.10 0.10 0.11 0.12 0.15 0.17 0.18 0.19 0.21 0.23 0.23 0.21 0.20 0.21 0.22 0.23 0.23 0.27 0.34 0.41 0.43 0.38 0.37 0.39 0.43 0.49 0.53 0.53 0.54 0.55 0.56 0.57 0.61 0.65 0.65 0.62
0.14 0.15 0.15 0.15 0.14 0.12 0.11 0.12 0.13 0.13 0.13 0.14 0.17 0.20 0.22 0.23 0.24 0.25 0.25 0.25 0.26 0.29 0.26 0.22 0.23 0.33 0.43 0.45 0.38 0.36 0.36 0.39 0.44 0.51 0.56 0.57 0.59 0.62 0.60 0.61 0.66 0.66 0.63 0.62
0.18 0.19 0.19 0.19 0.20 0.19 0.18 0.18 0.19 0.18 0.19 0.20 0.22 0.24 0.26 0.27 0.29 0.30 0.28 0.27 0.28 0.30 0.28 0.25 0.27 0.35 0.42 0.38 0.34 0.35 0.37 0.41 0.47 0.54 0.58 0.60 0.64 0.66 0.67 0.67 0.69 0.70 0.68 0.64
0.23 0.24 0.25 0.26 0.26 0.25 0.23 0.22 0.22 0.23 0.24 0.25 0.27 0.28 0.29 0.30 0.29 0.29 0.31 0.31 0.32 0.33 0.30 0.31 0.33 0.38 0.41 0.37 0.35 0.39 0.43 0.47 0.55 0.62 0.65 0.67 0.69 0.69 0.71 0.74 0.78 0.74 0.68 0.64
0.27 0.28 0.28 0.29 0.30 0.29 0.28 0.25 0.23 0.23 0.24 0.25 0.25 0.26 0.27 0.30 0.35 0.35 0.33 0.32 0.33 0.34 0.33 0.34 0.37 0.40 0.40 0.39 0.40 0.45 0.49 0.55 0.68 0.79 0.80 0.77 0.74 0.74 0.73 0.76 0.80 0.77 0.72 0.67
0.34 0.35 0.35 0.36 0.36 0.35 0.34 0.31 0.30 0.29 0.28 0.28 0.26 0.26 0.27 0.31 0.37 0.39 0.37 0.34 0.34 0.37 0.37 0.39 0.41 0.43 0.43 0.43 0.45 0.50 0.55 0.61 0.73 0.79 0.75 0.72 0.73 0.76 0.77 0.78 0.78 0.77 0.74 0.70
0.39 0.37 0.37 0.38 0.38 0.38 0.40 0.41 0.40 0.40 0.40 0.38 0.35 0.32 0.33 0.37 0.40 0.40 0.37 0.35 0.36 0.37 0.39 0.42 0.44 0.44 0.45 0.48 0.53 0.57 0.59 0.63 0.74 0.84 0.81 0.76 0.76 0.77 0.76 0.76 0.77 0.77 0.75 0.72

GEFSNGP_prec_meanprecacc_204.txt.gz
Total_Precipitation_Accumulation
0.31 0.31 0.37 0.40 0.33 0.33 0.45 0.46 0.39 0.22 0.20 0.22 0.19 0.14 0.13 0.10 0.09 0.10 0.13 0.13 0.12 0.13 0.15 0.16 0.20 0.22 0.22 0.23 0.27 0.36 0.51 0.64 0.71 0.75 0.83 0.90 0.91 0.93 0.98 1.11 1.17 1.16 1.18 1.21
0.26 0.18 0.24 0.28 0.20 0.20 0.22 0.20 0.22 0.18 0.19 0.23 0.20 0.15 0.13 0.13 0.11 0.11 0.12 0.10 0.10 0.11 0.14 0.16 0.18 0.21 0.20 0.22 0.25 0.32 0.45 0.55 0.64 0.77 0.89 1.02 1.03 1.06 1.08 1.12 1.19 1.21 1.17 1.15
0.44 0.20 0.35 0.40 0.20 0.18 0.18 0.16 0.17 0.22 0.23 0.19 0.18 0.16 0.14 0.14 0.14 0.12 0.10 0.08 0.08 0.10 0.12 0.14 0.16 0.17 0.18 0.21 0.25 0.30 0.40 0.51 0.57 0.70 0.83 0.94 0.97 1.01 1.03 0.96 0.95 1.05 1.11 1.03
0.67 0.48 0.69 0.33 0.14 0.13 0.16 0.16 0.16 0.18 0.18 0.17 0.18 0.16 0.14 0.14 0.14 0.12 0.11 0.10 0.10 0.10 0.10 0.11 0.13 0.15 0.15 0.16 0.20 0.27 0.35 0.48 0.50 0.60 0.72 0.79 0.85 0.90 0.92 0.83 0.83 0.93 0.94 0.85
0.94 0.70 0.39 0.17 0.13 0.17 0.22 0.24 0.18 0.16 0.14 0.12 0.13 0.13 0.15 0.17 0.13 0.12 0.11 0.10 0.11 0.11 0.10 0.10 0.12 0.13 0.13 0.13 0.16 0.23 0.30 0.40 0.45 0.52 0.65 0.67 0.73 0.83 0.83 0.83 0.83 0.80 0.80 0.75
1.05 0.78 0.37 0.18 0.11 0.13 0.20 0.31 0.17 0.13 0.13 0.13 0.14 0.25 0.23 0.22 0.17 0.13 0.09 0.09 0.10 0.10 0.09 0.10 0.11 0.12 0.11 0.12 0.15 0.20 0.26 0.32 0.37 0.41 0.53 0.55 0.58 0.65 0.69 0.70 0.73 0.74 0.72 0.68
0.83 0.64 0.27 0.14 0.12 0.15 0.37 0.43 0.17 0.12 0.13 0.14 0.20 0.30 0.26 0.21 0.19 0.15 0.12 0.11 0.10 0.10 0.10 0.10 0.11 0.13 0.11 0.11 0.14 0.18 0.22 0.26 0.31 0.35 0.40 0.45 0.49 0.53 0.59 0.61 0.64 0.69 0.68 0.62
0.61 0.68 0.34 0.15 0.19 0.34 0.40 0.21 0.13 0.11 0.10 0.12 0.13 0.12 0.13 0.15 0.16 0.14 0.14 0.14 0.12 0.11 0.10 0.10 0.11 0.12 0.10 0.10 0.13 0.15 0.20 0.24 0.29 0.34 0.34 0.38 0.43 0.49 0.52 0.59 0.68 0.70 0.66 0.63
0.44 0.36 0.22 0.16 0.23 0.24 0.18 0.13 0.10 0.10 0.10 0.12 0.11 0.10 0.12 0.13 0.13 0.13 0.14 0.14 0.13 0.12 0.13 0.12 0.11 0.11 0.10 0.10 0.13 0.16 0.19 0.23 0.29 0.33 0.31 0.37 0.43 0.50 0.53 0.60 0.69 0.71 0.66 0.62
0.22 0.14 0.10 0.11 0.13 0.14 0.12 0.10 0.08 0.09 0.11 0.10 0.10 0.09 0.11 0.11 0.12 0.14 0.14 0.12 0.11 0.12 0.14 0.13 0.11 0.11 0.10 0.10 0.14 0.18 0.20 0.22 0.27 0.34 0.35 0.35 0.40 0.49 0.54 0.58 0.72 0.77 0.73 0.68
0.16 0.08 0.06 0.07 0.08 0.09 0.10 0.08 0.06 0.07 0.09 0.08 0.08 0.08 0.09 0.12 0.13 0.14 0.14 0.12 0.11 0.11 0.12 0.13 0.12 0.10 0.09 0.11 0.16 0.20 0.22 0.24 0.28 0.35 0.39 0.37 0.39 0.44 0.50 0.51 0.70 0.86 0.79 0.79
0.13 0.07 0.08 0.06 0.05 0.05 0.07 0.07 0.06 0.07 0.08 0.06 0.06 0.07 0.08 0.10 0.12 0.12 0.12 0.13 0.12 0.10 0.11 0.12 0.11 0.10 0.10 0.12 0.17 0.23 0.27 0.29 0.32 0.38 0.40 0.39 0.40 0.42 0.47 0.48 0.55 0.59 0.66 0.75
0.10 0.06 0.06 0.04 0.03 0.04 0.06 0.06 0.05 0.06 0.08 0.09 0.06 0.07 0.09 0.09 0.10 0.11 0.09 0.10 0.12 0.12 0.11 0.11 0.10 0.10 0.11 0.14 0.18 0.24 0.30 0.34 0.36 0.40 0.40 0.40 0.38 0.40 0.45 0.44 0.46 0.49 0.55 0.62
0.07 0.08 0.07 0.04 0.04 0.04 0.05 0.05 0.05 0.05 0.05 0.08 0.08 0.07 0.09 0.10 0.10 0.11 0.10 0.09 0.10 0.12 0.12 0.11 0.09 0.10 0.12 0.15 0.20 0.25 0.30 0.35 0.39 0.41 0.41 0.38 0.35 0.37 0.42 0.47 0.53 0.55 0.60 0.65
0.06 0.07 0.08 0.05 0.04 0.03 0.04 0.05 0.06 0.06 0.05 0.05 0.07 0.09 0.10 0.11 0.11 0.10 0.09 0.08 0.08 0.10 0.10 0.10 0.10 0.10 0.12 0.15 0.20 0.26 0.32 0.35 0.39 0.41 0.40 0.35 0.33 0.35 0.37 0.41 0.49 0.58 0.65 0.73
0.07 0.06 0.05 0.05 0.04 0.04 0.05 0.05 0.06 0.06 0.06 0.06 0.06 0.08 0.11 0.12 0.12 0.11 0.09 0.08 0.09 0.09 0.09 0.10 0.10 0.12 0.13 0.16 0.22 0.28 0.34 0.42 0.47 0.44 0.42 0.38 0.35 0.37 0.39 0.42 0.48 0.55 0.64 0.70
0.12 0.08 0.06 0.06 0.05 0.05 0.06 0.07 0.08 0.07 0.07 0.07 0.07 0.07 0.09 0.12 0.12 0.12 0.10 0.09 0.10 0.09 0.09 0.10 0.12 0.13 0.14 0.18 0.26 0.34 0.39 0.41 0.47 0.46 0.45 0.43 0.43 0.44 0.44 0.47 0.53 0.56 0.59 0.66
0.12 0.11 0.09 0.09 0.09 0.08 0.07 0.06 0.07 0.07 0.08 0.08 0.08 0.09 0.11 0.13 0.16 0.15 0.13 0.12 0.12 0.11 0.10 0.11 0.15 0.16 0.16 0.21 0.29 0.35 0.40 0.42 0.41 0.43 0.47 0.49 0.51 0.50 0.50 0.52 0.55 0.57 0.57 0.60
0.10 0.10 0.09 0.09 0.10 0.10 0.09 0.08 0.07 0.07 0.07 0.08 0.10 0.11 0.13 0.16 0.20 0.21 0.18 0.15 0.15 0.15 0.16 0.17 0.21 0.19 0.20 0.27 0.35 0.37 0.41 0.45 0.44 0.45 0.48 0.54 0.52 0.47 0.50 0.54 0.58 0.60 0.59 0.60
0.09 0.11 0.11 0.10 0.10 0.10 0.10 0.09 0.08 0.08 0.08 0.09 0.11 0.12 0.13 0.16 0.20 0.22 0.21 0.19 0.18 0.20 0.21 0.23 0.22 0.22 0.25 0.33 0.43 0.43 0.42 0.43 0.46 0.50 0.52 0.52 0.51 0.50 0.52 0.56 0.61 0.66 0.65 0.63
0.12 0.13 0.13 0.13 0.11 0.10 0.10 0.10 0.10 0.10 0.11 0.12 0.16 0.18 0.18 0.20 0.22 0.24 0.24 0.23 0.21 0.23 0.25 0.26 0.26 0.30 0.37 0.45 0.47 0.42 0.41 0.43 0.46 0.51 0.55 0.55 0.56 0.57 0.58 0.60 0.65 0.69 0.69 0.67
0.16 0.17 0.16 0.16 0.15 0.13 0.12 0.13 0.13 0.14 0.14 0.15 0.18 0.21 0.23 0.24 0.25 0.26 0.26 0.27 0.28 0.31 0.28 0.24 0.26 0.36 0.47 0.48 0.42 0.40 0.40 0.42 0.47 0.54 0.59 0.59 0.60 0.63 0.63 0.64 0.70 0.70 0.68 0.67
0.19 0.20 0.20 0.20 0.21 0.20 0.18 0.19 0.19 0.19 0.20 0.21 0.22 0.24 0.26 0.28 0.30 0.31 0.30 0.28 0.30 0.32 0.30 0.27 0.29 0.38 0.45 0.41 0.38 0.39 0.41 0.44 0.49 0.56 0.60 0.62 0.65 0.68 0.69 0.70 0.73 0.75 0.74 0.70
0.23 0.24 0.25 0.26 0.26 0.25 0.24 0.23 0.22 0.23 0.25 0.26 0.27 0.29 0.30 0.30 0.29 0.30 0.32 0.33 0.34 0.35 0.33 0.33 0.35 0.40 0.44 0.39 0.39 0.43 0.46 0.50 0.57 0.64 0.67 0.68 0.71 0.71 0.73 0.77 0.82 0.80 0.75 0.70
0.28 0.28 0.28 0.29 0.30 0.30 0.29 0.26 0.24 0.24 0.25 0.25 0.26 0.26 0.27 0.31 0.35 0.36 0.34 0.33 0.34 0.36 0.34 0.36 0.39 0.43 0.42 0.41 0.42 0.48 0.52 0.58 0.70 0.82 0.82 0.78 0.76 0.76 0.76 0.79 0.84 0.82 0.77 0.72
0.35 0.35 0.36 0.37 0.37 0.36 0.34 0.32 0.31 0.29 0.29 0.28 0.27 0.26 0.28 0.32 0.38 0.40 0.38 0.36 0.36 0.39 0.38 0.40 0.42 0.45 0.45 0.46 0.48 0.52 0.57 0.63 0.75 0.81 0.78 0.75 0.76 0.79 0.80 0.81 0.82 0.81 0.79 0.75
0.39 0.38 0.37 0.38 0.39 0.39 0.41 0.42 0.41 0.41 0.41 0.39 0.36 0.33 0.34 0.37 0.41 0.41 0.38 0.37 0.37 0.38 0.40 0.44 0.46 0.46 0.47 0.50 0.56 0.59 0.61 0.65 0.77 0.86 0.84 0.80 0.79 0.80 0.78 0.79 0.80 0.81 0.80 0.77

GEFSNGP_prec_meanprecacc_210.txt.gz
Total_Precipitation_Accumulation
0.34 0.33 0.39 0.42 0.34 0.35 0.48 0.48 0.40 0.23 0.20 0.22 0.19 0.14 0.13 0.11 0.10 0.10 0.13 0.13 0.12 0.14 0.15 0.16 0.20 0.23 0.25 0.28 0.33 0.42 0.57 0.69 0.75 0.80 0.90 0.97 0.99 1.01 1.05 1.17 1.23 1.24 1.27 1.29
0.29 0.19 0.25 0.29 0.21 0.21 0.23 0.22 0.23 0.18 0.20 0.23 0.20 0.15 0.14 0.13 0.12 0.11 0.12 0.10 0.10 0.12 0.14 0.16 0.19 0.22 0.21 0.24 0.31 0.39 0.53 0.62 0.70 0.84 0.95 1.08 1.10 1.14 1.15 1.20 1.26 1.28 1.24 1.23
0.47 0.21 0.37 0.43 0.21 0.19 0.20 0.17 0.19 0.23 0.23 0.20 0.19 0.16 0.15 0.14 0.15 0.13 0.10 0.09 0.09 0.10 0.13 0.16 0.18 0.18 0.19 0.22 0.28 0.33 0.44 0.57 0.64 0.78 0.91 1.00 1.03 1.07 1.09 1.02 1.00 1.10 1.16 1.08
0.71 0.51 0.72 0.35 0.15 0.14 0.17 0.17 0.17 0.20 0.19 0.18 0.19 0.16 0.14 0.14 0.14 0.12 0.11 0.11 0.10 0.11 0.11 0.13 0.15 0.16 0.16 0.17 0.23 0.31 0.39 0.52 0.56 0.66 0.79 0.84 0.90 0.96 0.97 0.88 0.88 0.98 0.99 0.89
0.99 0.74 0.41 0.18 0.14 0.18 0.23 0.26 0.20 0.18 0.16 0.13 0.13 0.14 0.16 0.17 0.14 0.12 0.11 0.11 0.11 0.11 0.11 0.11 0.14 0.16 0.15 0.15 0.18 0.24 0.32 0.42 0.49 0.57 0.71 0.72 0.77 0.88 0.87 0.87 0.86 0.84 0.83 0.77
1.11 0.82 0.39 0.19 0.11 0.13 0.22 0.34 0.19 0.15 0.15 0.14 0.15 0.26 0.24 0.23 0.18 0.13 0.10 0.09 0.10 0.10 0.09 0.10 0.12 0.14 0.13 0.14 0.16 0.21 0.28 0.35 0.40 0.45 0.58 0.61 0.62 0.68 0.72 0.73 0.76 0.77 0.75 0.70
0.90 0.69 0.30 0.16 0.13 0.16 0.40 0.46 0.18 0.13 0.14 0.14 0.20 0.30 0.26 0.21 0.19 0.15 0.12 0.11 0.10 0.10 0.10 0.10 0.12 0.13 0.13 0.13 0.15 0.19 0.24 0.28 0.33 0.37 0.43 0.48 0.53 0.56 0.60 0.63 0.67 0.72 0.72 0.66
0.65 0.73 0.38 0.17 0.20 0.36 0.42 0.23 0.14 0.12 0.11 0.13 0.13 0.12 0.13 0.16 0.17 0.14 0.14 0.14 0.12 0.11 0.10 0.10 0.12 0.13 0.11 0.12 0.15 0.17 0.22 0.27 0.31 0.36 0.37 0.41 0.46 0.51 0.53 0.61 0.70 0.74 0.71 0.67
0.46 0.39 0.24 0.18 0.24 0.25 0.19 0.14 0.11 0.11 0.10 0.12 0.11 0.10 0.12 0.14 0.14 0.13 0.14 0.15 0.13 0.13 0.13 0.12 0.11 0.12 0.10 0.10 0.14 0.18 0.22 0.25 0.31 0.35 0.33 0.39 0.47 0.53 0.56 0.63 0.72 0.74 0.71 0.68
0.24 0.15 0.11 0.12 0.13 0.14 0.12 0.10 0.09 0.09 0.11 0.10 0.10 0.10 0.11 0.12 0.13 0.14 0.14 0.12 0.11 0.12 0.14 0.13 0.11 0.11 0.10 0.11 0.15 0.19 0.22 0.25 0.29 0.36 0.37 0.37 0.44 0.53 0.58 0.62 0.76 0.81 0.77 0.74
0.18 0.10 0.07 0.07 0.08 0.09 0.10 0.08 0.06 0.07 0.09 0.08 0.08 0.08 0.10 0.12 0.14 0.14 0.15 0.13 0.12 0.12 0.12 0.13 0.13 0.10 0.09 0.12 0.17 0.21 0.23 0.25 0.30 0.37 0.41 0.39 0.41 0.47 0.55 0.58 0.77 0.92 0.85 0.85
0.14 0.07 0.09 0.07 0.05 0.05 0.07 0.08 0.06 0.07 0.08 0.06 0.06 0.08 0.09 0.11 0.13 0.12 0.13 0.13 0.13 0.11 0.12 0.12 0.11 0.10 0.11 0.13 0.18 0.24 0.28 0.30 0.34 0.40 0.41 0.41 0.41 0.45 0.52 0.55 0.62 0.66 0.72 0.80
0.11 0.07 0.07 0.05 0.04 0.04 0.06 0.06 0.06 0.06 0.08 0.09 0.07 0.07 0.09 0.10 0.11 0.12 0.11 0.11 0.13 0.13 0.12 0.11 0.10 0.10 0.12 0.15 0.19 0.26 0.32 0.35 0.38 0.42 0.41 0.41 0.40 0.43 0.49 0.48 0.51 0.54 0.60 0.67
0.08 0.08 0.08 0.05 0.04 0.04 0.05 0.06 0.05 0.05 0.05 0.08 0.09 0.08 0.09 0.11 0.11 0.12 0.11 0.11 0.12 0.13 0.12 0.11 0.10 0.11 0.13 0.16 0.21 0.27 0.32 0.37 0.41 0.43 0.42 0.39 0.36 0.39 0.44 0.50 0.56 0.59 0.64 0.69
0.07 0.08 0.08 0.06 0.04 0.03 0.04 0.05 0.06 0.06 0.05 0.06 0.08 0.10 0.11 0.12 0.12 0.11 0.11 0.11 0.10 0.11 0.11 0.11 0.11 0.12 0.13 0.16 0.21 0.27 0.34 0.37 0.42 0.43 0.42 0.36 0.34 0.37 0.39 0.43 0.52 0.61 0.68 0.75
0.08 0.06 0.05 0.05 0.04 0.04 0.05 0.06 0.07 0.07 0.07 0.07 0.07 0.08 0.11 0.13 0.13 0.13 0.12 0.11 0.11 0.11 0.11 0.12 0.12 0.13 0.14 0.17 0.23 0.30 0.37 0.45 0.49 0.46 0.44 0.39 0.36 0.39 0.41 0.44 0.50 0.58 0.67 0.72
0.13 0.09 0.07 0.06 0.05 0.05 0.06 0.07 0.08 0.07 0.07 0.07 0.07 0.08 0.10 0.13 0.14 0.14 0.13 0.12 0.12 0.12 0.12 0.13 0.14 0.15 0.15 0.20 0.27 0.36 0.41 0.44 0.49 0.48 0.46 0.44 0.45 0.45 0.46 0.50 0.56 0.59 0.62 0.70
0.13 0.12 0.10 0.10 0.09 0.09 0.07 0.07 0.07 0.07 0.08 0.09 0.08 0.09 0.12 0.15 0.18 0.18 0.16 0.15 0.14 0.13 0.13 0.14 0.18 0.18 0.18 0.23 0.31 0.38 0.42 0.44 0.43 0.45 0.49 0.51 0.53 0.52 0.53 0.55 0.57 0.60 0.61 0.65
0.10 0.10 0.10 0.09 0.10 0.10 0.09 0.08 0.08 0.07 0.08 0.09 0.10 0.12 0.14 0.18 0.21 0.23 0.21 0.18 0.17 0.17 0.18 0.20 0.25 0.22 0.23 0.30 0.39 0.41 0.45 0.48 0.47 0.47 0.50 0.57 0.55 0.50 0.53 0.57 0.61 0.64 0.64 0.65
0.10 0.11 0.12 0.11 0.10 0.11 0.11 0.09 0.08 0.08 0.09 0.10 0.12 0.13 0.14 0.17 0.21 0.24 0.24 0.22 0.21 0.23 0.24 0.26 0.26 0.25 0.29 0.38 0.48 0.47 0.47 0.47 0.49 0.53 0.55 0.56 0.56 0.55 0.57 0.60 0.66 0.71 0.71 0.69
0.13 0.14 0.14 0.14 0.12 0.11 0.11 0.11 0.10 0.11 0.12 0.13 0.17 0.19 0.20 0.21 0.24 0.26 0.26 0.25 0.24 0.26 0.27 0.30 0.30 0.34 0.41 0.50 0.52 0.47 0.46 0.47 0.49 0.55 0.60 0.60 0.60 0.61 0.62 0.64 0.69 0.73 0.75 0.73
0.17 0.18 0.18 0.17 0.16 0.14 0.13 0.14 0.15 0.15 0.15 0.16 0.19 0.22 0.24 0.26 0.27 0.27 0.28 0.29 0.31 0.34 0.31 0.27 0.30 0.41 0.52 0.53 0.46 0.44 0.44 0.46 0.51 0.58 0.63 0.63 0.64 0.67 0.66 0.68 0.74 0.75 0.73 0.73
0.20 0.21 0.22 0.22 0.23 0.22 0.20 0.20 0.21 0.21 0.22 0.22 0.24 0.26 0.28 0.29 0.31 0.33 0.32 0.31 0.32 0.35 0.32 0.29 0.32 0.42 0.50 0.45 0.41 0.42 0.44 0.47 0.53 0.60 0.64 0.66 0.69 0.71 0.73 0.74 0.78 0.80 0.79 0.75
0.23 0.24 0.26 0.27 0.27 0.26 0.25 0.24 0.24 0.25 0.26 0.27 0.28 0.30 0.32 0.32 0.31 0.32 0.34 0.35 0.36 0.37 0.35 0.35 0.37 0.43 0.47 0.43 0.42 0.45 0.48 0.52 0.60 0.67 0.70 0.71 0.74 0.75 0.76 0.81 0.86 0.84 0.79 0.74
0.28 0.29 0.29 0.29 0.31 0.31 0.29 0.26 0.25 0.25 0.25 0.26 0.26 0.27 0.28 0.33 0.38 0.38 0.36 0.35 0.37 0.38 0.36 0.39 0.42 0.45 0.46 0.44 0.45 0.50 0.53 0.59 0.73 0.84 0.85 0.81 0.78 0.79 0.78 0.83 0.88 0.86 0.81 0.76
0.35 0.36 0.36 0.37 0.38 0.37 0.35 0.33 0.31 0.30 0.30 0.29 0.27 0.26 0.29 0.33 0.39 0.42 0.40 0.38 0.38 0.41 0.41 0.43 0.45 0.47 0.47 0.48 0.50 0.54 0.58 0.65 0.77 0.84 0.80 0.77 0.78 0.81 0.82 0.85 0.85 0.85 0.82 0.79
0.39 0.38 0.38 0.39 0.40 0.40 0.42 0.43 0.42 0.42 0.42 0.40 0.37 0.33 0.35 0.39 0.42 0.43 0.40 0.39 0.40 0.41 0.43 0.47 0.49 0.49 0.50 0.53 0.57 0.60 0.62 0.66 0.78 0.88 0.86 0.82 0.81 0.82 0.81 0.82 0.83 0.84 0.84 0.81

GEFSNGP_prec_meanprecacc_216.txt.gz
Total_Precipitation_Accumulation
0.36 0.34 0.40 0.44 0.36 0.37 0.51 0.51 0.42 0.23 0.20 0.23 0.19 0.15 0.14 0.11 0.10 0.10 0.13 0.13 0.13 0.15 0.17 0.19 0.23 0.25 0.26 0.29 0.35 0.44 0.60 0.70 0.76 0.82 0.91 0.98 1.00 1.02 1.07 1.19 1.26 1.27 1.30 1.33
0.30 0.20 0.27 0.31 0.22 0.22 0.25 0.23 0.24 0.19 0.20 0.23 0.21 0.15 0.14 0.13 0.12 0.11 0.13 0.11 0.11 0.13 0.17 0.19 0.21 0.24 0.23 0.25 0.32 0.41 0.56 0.64 0.72 0.86 0.97 1.09 1.11 1.15 1.17 1.22 1.30 1.32 1.28 1.29
0.49 0.22 0.38 0.44 0.22 0.20 0.20 0.18 0.19 0.24 0.24 0.21 0.19 0.17 0.15 0.15 0.15 0.13 0.10 0.09 0.09 0.11 0.15 0.18 0.20 0.20 0.21 0.24 0.29 0.35 0.46 0.59 0.66 0.80 0.92 1.02 1.05 1.09 1.12 1.06 1.05 1.15 1.21 1.15
0.74 0.54 0.76 0.36 0.16 0.15 0.18 0.18 0.18 0.20 0.20 0.19 0.20 0.17 0.15 0.15 0.15 0.12 0.11 0.11 0.11 0.12 0.13 0.15 0.17 0.18 0.18 0.19 0.24 0.33 0.41 0.54 0.59 0.68 0.82 0.88 0.94 0.99 1.01 0.93 0.92 1.02 1.04 0.95
1.03 0.77 0.43 0.19 0.14 0.19 0.25 0.28 0.21 0.19 0.17 0.14 0.14 0.15 0.17 0.18 0.14 0.13 0.11 0.11 0.11 0.12 0.12 0.12 0.15 0.17 0.17 0.17 0.19 0.26 0.34 0.45 0.52 0.60 0.76 0.77 0.83 0.92 0.91 0.91 0.90 0.87 0.86 0.81
1.17 0.86 0.42 0.21 0.12 0.14 0.23 0.37 0.21 0.16 0.17 0.16 0.16 0.28 0.25 0.23 0.18 0.14 0.10 0.10 0.10 0.10 0.09 0.10 0.13 0.14 0.14 0.15 0.17 0.22 0.29 0.37 0.43 0.48 0.62 0.65 0.67 0.73 0.75 0.77 0.81 0.81 0.79 0.74
0.95 0.73 0.33 0.17 0.13 0.16 0.42 0.49 0.20 0.14 0.15 0.15 0.21 0.31 0.26 0.22 0.19 0.15 0.12 0.11 0.10 0.10 0.10 0.10 0.12 0.14 0.14 0.14 0.16 0.20 0.25 0.30 0.35 0.40 0.46 0.51 0.56 0.60 0.64 0.67 0.72 0.77 0.77 0.71
0.68 0.76 0.40 0.18 0.21 0.37 0.44 0.24 0.15 0.12 0.11 0.13 0.14 0.13 0.13 0.16 0.17 0.14 0.14 0.14 0.12 0.11 0.10 0.10 0.12 0.13 0.11 0.12 0.16 0.18 0.23 0.28 0.33 0.38 0.39 0.43 0.48 0.54 0.56 0.64 0.75 0.78 0.75 0.72
0.48 0.41 0.26 0.19 0.24 0.26 0.19 0.15 0.12 0.12 0.11 0.12 0.12 0.11 0.13 0.14 0.14 0.13 0.14 0.15 0.13 0.13 0.13 0.12 0.11 0.12 0.11 0.11 0.15 0.19 0.23 0.27 0.32 0.37 0.34 0.41 0.48 0.55 0.58 0.66 0.76 0.78 0.74 0.71
0.26 0.17 0.13 0.13 0.15 0.15 0.13 0.11 0.09 0.10 0.12 0.11 0.11 0.10 0.12 0.12 0.13 0.14 0.14 0.13 0.12 0.12 0.14 0.13 0.12 0.11 0.10 0.11 0.15 0.20 0.23 0.26 0.31 0.38 0.39 0.39 0.45 0.54 0.59 0.64 0.79 0.85 0.81 0.78
0.20 0.12 0.09 0.09 0.10 0.11 0.12 0.09 0.07 0.08 0.10 0.09 0.09 0.09 0.11 0.13 0.14 0.15 0.15 0.13 0.12 0.12 0.13 0.13 0.13 0.10 0.10 0.13 0.18 0.22 0.24 0.26 0.31 0.39 0.43 0.41 0.43 0.49 0.57 0.61 0.80 0.96 0.89 0.90
0.16 0.09 0.10 0.08 0.06 0.06 0.08 0.08 0.07 0.08 0.09 0.07 0.07 0.09 0.10 0.12 0.13 0.13 0.13 0.14 0.13 0.12 0.12 0.12 0.11 0.10 0.11 0.14 0.19 0.25 0.29 0.31 0.35 0.42 0.43 0.43 0.43 0.47 0.55 0.59 0.66 0.70 0.76 0.85
0.11 0.08 0.07 0.05 0.04 0.05 0.07 0.07 0.06 0.07 0.09 0.09 0.07 0.08 0.10 0.11 0.12 0.13 0.11 0.12 0.14 0.14 0.12 0.11 0.10 0.11 0.13 0.16 0.20 0.27 0.33 0.36 0.40 0.43 0.43 0.43 0.42 0.45 0.51 0.51 0.54 0.58 0.63 0.71
0.08 0.09 0.09 0.05 0.05 0.04 0.06 0.06 0.06 0.05 0.06 0.08 0.09 0.08 0.10 0.11 0.12 0.13 0.12 0.12 0.13 0.14 0.13 0.12 0.11 0.12 0.14 0.18 0.22 0.28 0.33 0.39 0.43 0.44 0.44 0.41 0.38 0.41 0.47 0.53 0.59 0.62 0.67 0.73
0.07 0.08 0.09 0.06 0.04 0.04 0.05 0.05 0.06 0.06 0.06 0.06 0.08 0.10 0.12 0.13 0.13 0.12 0.12 0.12 0.11 0.12 0.12 0.12 0.12 0.13 0.14 0.18 0.23 0.29 0.36 0.40 0.44 0.45 0.43 0.38 0.36 0.39 0.41 0.46 0.54 0.64 0.71 0.78
0.09 0.07 0.06 0.06 0.05 0.04 0.05 0.06 0.07 0.07 0.07 0.07 0.07 0.09 0.12 0.14 0.14 0.14 0.13 0.13 0.13 0.12 0.13 0.14 0.14 0.15 0.16 0.19 0.25 0.31 0.39 0.47 0.51 0.48 0.45 0.40 0.38 0.41 0.43 0.47 0.53 0.61 0.70 0.76
0.14 0.11 0.08 0.07 0.06 0.06 0.07 0.08 0.09 0.08 0.08 0.08 0.08 0.08 0.11 0.14 0.15 0.15 0.14 0.14 0.15 0.14 0.14 0.14 0.16 0.17 0.17 0.21 0.29 0.37 0.42 0.45 0.51 0.50 0.47 0.45 0.46 0.47 0.48 0.52 0.58 0.61 0.65 0.75
0.14 0.13 0.11 0.11 0.10 0.10 0.08 0.07 0.08 0.08 0.09 0.10 0.09 0.10 0.12 0.15 0.18 0.19 0.18 0.17 0.16 0.15 0.15 0.16 0.20 0.21 0.20 0.25 0.33 0.40 0.45 0.46 0.45 0.46 0.51 0.53 0.55 0.54 0.55 0.57 0.60 0.63 0.64 0.69
0.11 0.11 0.11 0.10 0.11 0.11 0.10 0.09 0.09 0.08 0.09 0.10 0.11 0.12 0.15 0.18 0.22 0.25 0.23 0.21 0.20 0.19 0.21 0.23 0.28 0.25 0.26 0.33 0.41 0.44 0.48 0.50 0.49 0.49 0.52 0.59 0.58 0.53 0.56 0.60 0.64 0.67 0.67 0.69
0.10 0.12 0.12 0.12 0.11 0.12 0.12 0.10 0.09 0.09 0.10 0.11 0.13 0.14 0.15 0.18 0.22 0.26 0.26 0.24 0.24 0.26 0.27 0.30 0.29 0.28 0.32 0.41 0.52 0.50 0.50 0.50 0.52 0.55 0.58 0.59 0.58 0.58 0.60 0.63 0.69 0.75 0.74 0.72
0.13 0.15 0.15 0.14 0.13 0.12 0.12 0.12 0.12 0.12 0.13 0.14 0.18 0.20 0.21 0.22 0.25 0.29 0.29 0.28 0.27 0.29 0.31 0.33 0.33 0.38 0.45 0.54 0.56 0.50 0.49 0.50 0.53 0.59 0.63 0.63 0.64 0.64 0.65 0.67 0.73 0.78 0.78 0.76
0.17 0.18 0.18 0.18 0.17 0.15 0.14 0.15 0.16 0.16 0.16 0.17 0.20 0.24 0.26 0.28 0.29 0.31 0.31 0.33 0.35 0.38 0.35 0.31 0.34 0.45 0.57 0.58 0.50 0.48 0.48 0.50 0.54 0.61 0.67 0.67 0.69 0.70 0.69 0.71 0.78 0.80 0.77 0.77
0.20 0.22 0.22 0.23 0.24 0.23 0.21 0.22 0.22 0.22 0.23 0.24 0.26 0.28 0.30 0.33 0.35 0.36 0.35 0.34 0.36 0.38 0.36 0.33 0.37 0.47 0.54 0.49 0.45 0.46 0.47 0.50 0.56 0.64 0.68 0.70 0.73 0.75 0.77 0.78 0.82 0.84 0.83 0.79
0.24 0.25 0.26 0.27 0.28 0.27 0.26 0.25 0.26 0.27 0.29 0.30 0.31 0.33 0.35 0.35 0.34 0.36 0.38 0.38 0.39 0.40 0.38 0.39 0.41 0.47 0.51 0.46 0.44 0.48 0.51 0.55 0.63 0.71 0.74 0.76 0.78 0.79 0.81 0.86 0.91 0.88 0.83 0.78
0.28 0.29 0.29 0.29 0.31 0.31 0.30 0.27 0.25 0.26 0.27 0.28 0.28 0.29 0.32 0.36 0.41 0.42 0.39 0.38 0.39 0.40 0.39 0.41 0.45 0.49 0.48 0.47 0.47 0.51 0.55 0.62 0.76 0.88 0.89 0.85 0.82 0.83 0.83 0.87 0.93 0.91 0.85 0.80
0.35 0.36 0.37 0.38 0.38 0.38 0.36 0.33 0.32 0.31 0.31 0.30 0.28 0.28 0.31 0.36 0.42 0.45 0.43 0.41 0.41 0.44 0.43 0.45 0.47 0.50 0.50 0.50 0.52 0.56 0.61 0.68 0.80 0.87 0.84 0.81 0.81 0.85 0.86 0.88 0.89 0.89 0.87 0.83
0.39 0.38 0.38 0.39 0.40 0.41 0.42 0.44 0.43 0.43 0.43 0.41 0.38 0.34 0.36 0.40 0.44 0.45 0.43 0.42 0.43 0.44 0.46 0.49 0.51 0.51 0.52 0.54 0.59 0.63 0.65 0.69 0.81 0.91 0.89 0.85 0.84 0.85 0.84 0.85 0.87 0.88 0.87 0.84

GEFSNGP_prec_meanprecacc_222.txt.gz
Total_Precipitation_Accumulation
0.37 0.35 0.42 0.46 0.37 0.38 0.54 0.53 0.43 0.24 0.21 0.24 0.20 0.15 0.14 0.12 0.10 0.11 0.13 0.14 0.13 0.15 0.17 0.19 0.23 0.26 0.27 0.29 0.36 0.45 0.60 0.71 0.77 0.83 0.93 0.99 1.02 1.04 1.08 1.21 1.28 1.29 1.31 1.34
0.32 0.21 0.28 0.32 0.23 0.23 0.26 0.25 0.26 0.20 0.21 0.24 0.21 0.16 0.14 0.14 0.12 0.12 0.13 0.11 0.12 0.13 0.17 0.20 0.22 0.24 0.23 0.25 0.33 0.42 0.56 0.65 0.73 0.86 0.98 1.10 1.12 1.17 1.19 1.23 1.31 1.33 1.30 1.31
0.51 0.24 0.40 0.46 0.23 0.21 0.22 0.20 0.21 0.25 0.25 0.21 0.19 0.17 0.16 0.15 0.15 0.14 0.11 0.10 0.10 0.12 0.16 0.18 0.20 0.21 0.22 0.24 0.30 0.35 0.47 0.59 0.66 0.80 0.93 1.03 1.06 1.10 1.13 1.06 1.05 1.16 1.22 1.16
0.77 0.56 0.79 0.38 0.16 0.16 0.19 0.20 0.19 0.21 0.21 0.20 0.20 0.19 0.16 0.16 0.15 0.13 0.11 0.11 0.11 0.13 0.14 0.15 0.18 0.19 0.19 0.20 0.25 0.34 0.41 0.54 0.59 0.69 0.83 0.89 0.95 1.00 1.01 0.93 0.92 1.03 1.05 0.97
1.08 0.81 0.46 0.20 0.15 0.19 0.26 0.31 0.22 0.20 0.18 0.16 0.16 0.17 0.19 0.19 0.15 0.13 0.11 0.11 0.11 0.12 0.13 0.13 0.16 0.18 0.18 0.18 0.21 0.27 0.35 0.45 0.52 0.61 0.77 0.78 0.84 0.93 0.92 0.92 0.91 0.88 0.88 0.83
1.21 0.90 0.45 0.22 0.12 0.14 0.24 0.40 0.22 0.17 0.18 0.17 0.17 0.30 0.27 0.24 0.18 0.14 0.10 0.10 0.10 0.11 0.10 0.11 0.14 0.16 0.16 0.16 0.19 0.24 0.31 0.38 0.44 0.49 0.64 0.67 0.68 0.74 0.76 0.78 0.82 0.83 0.81 0.76
0.99 0.76 0.35 0.18 0.14 0.17 0.45 0.52 0.21 0.15 0.16 0.17 0.22 0.32 0.28 0.22 0.20 0.15 0.12 0.11 0.10 0.10 0.11 0.11 0.13 0.15 0.15 0.15 0.18 0.23 0.28 0.32 0.37 0.41 0.48 0.53 0.58 0.61 0.65 0.69 0.74 0.79 0.80 0.73
0.71 0.80 0.43 0.19 0.21 0.38 0.46 0.24 0.15 0.13 0.12 0.14 0.14 0.13 0.14 0.16 0.17 0.15 0.14 0.14 0.13 0.12 0.11 0.11 0.13 0.14 0.13 0.14 0.18 0.20 0.26 0.31 0.35 0.40 0.42 0.45 0.50 0.56 0.58 0.67 0.77 0.80 0.77 0.75
0.51 0.44 0.27 0.20 0.26 0.28 0.20 0.16 0.12 0.13 0.13 0.13 0.13 0.12 0.13 0.14 0.14 0.13 0.14 0.15 0.14 0.13 0.14 0.12 0.12 0.13 0.12 0.12 0.17 0.21 0.27 0.30 0.36 0.40 0.38 0.45 0.51 0.58 0.61 0.69 0.78 0.81 0.77 0.74
0.28 0.19 0.14 0.15 0.16 0.16 0.14 0.12 0.11 0.12 0.14 0.13 0.13 0.11 0.12 0.13 0.13 0.15 0.14 0.13 0.12 0.13 0.14 0.14 0.12 0.12 0.11 0.13 0.17 0.22 0.26 0.29 0.34 0.41 0.42 0.43 0.48 0.57 0.62 0.67 0.82 0.88 0.84 0.81
0.22 0.13 0.11 0.11 0.12 0.13 0.13 0.10 0.08 0.10 0.12 0.12 0.11 0.11 0.12 0.14 0.15 0.15 0.15 0.13 0.12 0.12 0.13 0.14 0.13 0.11 0.10 0.14 0.19 0.23 0.25 0.28 0.34 0.42 0.46 0.43 0.45 0.51 0.58 0.62 0.82 0.99 0.92 0.92
0.18 0.10 0.12 0.10 0.08 0.08 0.10 0.10 0.09 0.11 0.12 0.10 0.10 0.12 0.12 0.13 0.14 0.14 0.14 0.14 0.14 0.12 0.12 0.12 0.11 0.10 0.12 0.15 0.20 0.27 0.30 0.32 0.36 0.44 0.45 0.44 0.45 0.48 0.56 0.60 0.67 0.72 0.78 0.87
0.13 0.09 0.08 0.06 0.05 0.06 0.09 0.10 0.08 0.10 0.12 0.12 0.10 0.11 0.13 0.13 0.14 0.14 0.12 0.13 0.14 0.14 0.13 0.12 0.11 0.11 0.13 0.16 0.21 0.28 0.34 0.38 0.41 0.45 0.44 0.44 0.43 0.47 0.53 0.52 0.54 0.59 0.65 0.73
0.09 0.09 0.09 0.06 0.05 0.05 0.07 0.08 0.08 0.08 0.08 0.10 0.11 0.11 0.13 0.14 0.14 0.14 0.13 0.13 0.13 0.14 0.13 0.12 0.11 0.12 0.15 0.19 0.24 0.30 0.34 0.40 0.44 0.46 0.45 0.42 0.40 0.43 0.48 0.54 0.60 0.63 0.69 0.75
0.08 0.09 0.10 0.07 0.05 0.04 0.05 0.06 0.08 0.08 0.08 0.08 0.10 0.12 0.13 0.15 0.14 0.13 0.13 0.13 0.12 0.13 0.13 0.13 0.13 0.14 0.16 0.20 0.25 0.31 0.37 0.41 0.45 0.46 0.45 0.39 0.37 0.41 0.43 0.48 0.57 0.66 0.73 0.80
0.10 0.08 0.07 0.06 0.05 0.05 0.06 0.07 0.08 0.08 0.09 0.10 0.09 0.11 0.13 0.15 0.15 0.15 0.14 0.14 0.14 0.13 0.14 0.15 0.15 0.16 0.18 0.21 0.26 0.33 0.40 0.49 0.53 0.49 0.46 0.42 0.40 0.43 0.45 0.50 0.56 0.64 0.73 0.79
0.15 0.11 0.09 0.08 0.06 0.06 0.07 0.08 0.10 0.09 0.09 0.09 0.09 0.10 0.12 0.14 0.16 0.16 0.15 0.15 0.16 0.15 0.15 0.16 0.18 0.19 0.20 0.24 0.31 0.39 0.44 0.47 0.53 0.52 0.50 0.48 0.49 0.50 0.51 0.56 0.61 0.64 0.68 0.78
0.15 0.14 0.12 0.12 0.11 0.10 0.09 0.08 0.08 0.09 0.10 0.11 0.10 0.11 0.13 0.16 0.19 0.20 0.19 0.18 0.18 0.17 0.17 0.18 0.22 0.22 0.22 0.27 0.36 0.42 0.47 0.48 0.47 0.49 0.54 0.56 0.58 0.57 0.59 0.61 0.63 0.66 0.67 0.73
0.11 0.11 0.11 0.11 0.12 0.12 0.11 0.10 0.09 0.09 0.10 0.11 0.12 0.13 0.15 0.19 0.23 0.26 0.24 0.22 0.21 0.21 0.23 0.25 0.30 0.27 0.28 0.35 0.44 0.46 0.50 0.53 0.51 0.52 0.56 0.62 0.61 0.56 0.60 0.62 0.66 0.70 0.70 0.72
0.10 0.12 0.13 0.12 0.12 0.13 0.13 0.11 0.10 0.10 0.11 0.12 0.14 0.15 0.16 0.18 0.23 0.27 0.27 0.25 0.26 0.28 0.29 0.32 0.32 0.31 0.35 0.44 0.55 0.53 0.53 0.53 0.55 0.59 0.61 0.62 0.62 0.62 0.63 0.65 0.71 0.77 0.76 0.75
0.14 0.15 0.15 0.15 0.13 0.12 0.13 0.13 0.12 0.13 0.14 0.15 0.19 0.21 0.22 0.23 0.26 0.30 0.31 0.29 0.29 0.31 0.34 0.36 0.37 0.41 0.49 0.58 0.59 0.53 0.52 0.54 0.57 0.63 0.67 0.66 0.67 0.67 0.68 0.70 0.75 0.80 0.81 0.79
0.17 0.19 0.19 0.18 0.17 0.16 0.15 0.16 0.17 0.17 0.17 0.18 0.22 0.25 0.27 0.29 0.30 0.32 0.33 0.35 0.37 0.40 0.38 0.34 0.38 0.49 0.61 0.62 0.54 0.52 0.52 0.54 0.59 0.66 0.72 0.71 0.72 0.73 0.72 0.74 0.81 0.82 0.80 0.79
0.21 0.22 0.23 0.23 0.24 0.23 0.21 0.22 0.23 0.23 0.24 0.25 0.28 0.31 0.33 0.35 0.37 0.39 0.37 0.36 0.38 0.41 0.39 0.37 0.41 0.52 0.59 0.53 0.49 0.50 0.51 0.54 0.60 0.68 0.73 0.74 0.77 0.78 0.80 0.81 0.85 0.86 0.85 0.81
0.24 0.25 0.27 0.28 0.28 0.27 0.26 0.26 0.26 0.28 0.30 0.31 0.33 0.36 0.38 0.38 0.37 0.39 0.41 0.41 0.42 0.42 0.41 0.42 0.45 0.51 0.55 0.50 0.48 0.51 0.54 0.58 0.66 0.74 0.78 0.79 0.81 0.82 0.84 0.89 0.93 0.90 0.84 0.80
0.29 0.29 0.29 0.30 0.31 0.32 0.30 0.28 0.26 0.27 0.28 0.29 0.30 0.32 0.34 0.39 0.45 0.45 0.42 0.41 0.42 0.43 0.42 0.44 0.48 0.52 0.51 0.49 0.49 0.53 0.57 0.65 0.79 0.91 0.92 0.88 0.85 0.86 0.85 0.90 0.95 0.92 0.87 0.82
0.35 0.36 0.37 0.38 0.39 0.38 0.37 0.34 0.33 0.32 0.32 0.32 0.30 0.30 0.33 0.39 0.45 0.48 0.46 0.44 0.44 0.46 0.46 0.48 0.50 0.52 0.52 0.52 0.53 0.57 0.62 0.69 0.82 0.89 0.86 0.83 0.84 0.87 0.88 0.90 0.91 0.90 0.88 0.85
0.40 0.39 0.38 0.40 0.40 0.41 0.43 0.45 0.45 0.44 0.44 0.43 0.40 0.36 0.38 0.43 0.47 0.48 0.45 0.44 0.45 0.46 0.48 0.52 0.53 0.53 0.54 0.56 0.61 0.64 0.66 0.70 0.82 0.93 0.91 0.87 0.87 0.87 0.86 0.87 0.89 0.90 0.90 0.87

GEFSNGP_prec_meanprecacc_228.txt.gz
Total_Precipitation_Accumulation
0.38 0.36 0.43 0.47 0.39 0.39 0.56 0.56 0.47 0.27 0.24 0.27 0.22 0.17 0.15 0.13 0.11 0.11 0.14 0.14 0.14 0.15 0.17 0.20 0.23 0.26 0.28 0.30 0.36 0.45 0.61 0.71 0.77 0.83 0.93 1.00 1.02 1.05 1.10 1.23 1.32 1.33 1.35 1.37
0.32 0.22 0.28 0.33 0.24 0.25 0.28 0.27 0.28 0.23 0.26 0.27 0.22 0.17 0.15 0.15 0.13 0.13 0.14 0.12 0.12 0.14 0.18 0.20 0.22 0.25 0.25 0.26 0.33 0.42 0.57 0.65 0.73 0.87 0.98 1.11 1.13 1.18 1.20 1.25 1.34 1.36 1.32 1.33
0.53 0.25 0.42 0.48 0.26 0.22 0.24 0.23 0.23 0.29 0.30 0.24 0.22 0.19 0.17 0.16 0.16 0.14 0.12 0.11 0.11 0.13 0.17 0.20 0.22 0.22 0.23 0.26 0.30 0.36 0.48 0.60 0.67 0.81 0.94 1.04 1.07 1.11 1.15 1.09 1.08 1.18 1.24 1.18
0.81 0.59 0.83 0.41 0.19 0.18 0.21 0.23 0.23 0.25 0.25 0.23 0.24 0.22 0.18 0.16 0.16 0.13 0.12 0.12 0.12 0.14 0.15 0.16 0.19 0.20 0.20 0.22 0.26 0.35 0.42 0.55 0.59 0.69 0.83 0.90 0.96 1.01 1.03 0.97 0.95 1.04 1.07 0.98
1.12 0.84 0.48 0.22 0.16 0.21 0.28 0.34 0.25 0.23 0.22 0.20 0.19 0.21 0.23 0.21 0.15 0.13 0.12 0.11 0.12 0.13 0.13 0.13 0.16 0.19 0.19 0.19 0.22 0.28 0.35 0.46 0.53 0.62 0.78 0.79 0.85 0.95 0.94 0.95 0.92 0.90 0.89 0.84
1.24 0.93 0.48 0.24 0.13 0.15 0.26 0.43 0.25 0.19 0.21 0.21 0.20 0.33 0.31 0.26 0.19 0.15 0.11 0.10 0.10 0.11 0.10 0.12 0.14 0.16 0.16 0.17 0.20 0.25 0.32 0.39 0.44 0.50 0.65 0.68 0.70 0.76 0.78 0.81 0.83 0.84 0.82 0.77
1.01 0.79 0.36 0.20 0.15 0.18 0.47 0.55 0.23 0.17 0.18 0.19 0.25 0.34 0.29 0.24 0.21 0.17 0.14 0.12 0.11 0.11 0.11 0.12 0.14 0.16 0.16 0.16 0.19 0.24 0.29 0.33 0.38 0.42 0.50 0.54 0.59 0.62 0.67 0.71 0.75 0.80 0.81 0.74
0.74 0.82 0.45 0.20 0.22 0.40 0.48 0.26 0.16 0.15 0.14 0.16 0.16 0.15 0.16 0.18 0.19 0.16 0.16 0.16 0.14 0.13 0.11 0.12 0.13 0.14 0.14 0.15 0.19 0.21 0.27 0.32 0.36 0.41 0.43 0.47 0.51 0.57 0.59 0.67 0.77 0.81 0.78 0.76
0.54 0.48 0.31 0.21 0.27 0.29 0.22 0.17 0.14 0.15 0.15 0.15 0.15 0.14 0.15 0.15 0.15 0.14 0.15 0.15 0.14 0.14 0.14 0.13 0.13 0.14 0.13 0.13 0.18 0.22 0.28 0.32 0.38 0.41 0.39 0.46 0.52 0.58 0.62 0.69 0.79 0.81 0.77 0.75
0.30 0.23 0.17 0.16 0.17 0.17 0.15 0.13 0.11 0.13 0.15 0.14 0.14 0.13 0.13 0.13 0.14 0.15 0.15 0.13 0.12 0.13 0.15 0.14 0.13 0.12 0.12 0.13 0.18 0.23 0.27 0.30 0.36 0.43 0.44 0.44 0.50 0.58 0.63 0.68 0.82 0.88 0.85 0.81
0.25 0.16 0.12 0.12 0.12 0.13 0.14 0.11 0.09 0.11 0.13 0.13 0.13 0.12 0.13 0.15 0.15 0.16 0.16 0.14 0.13 0.13 0.13 0.14 0.13 0.11 0.11 0.14 0.20 0.24 0.26 0.29 0.35 0.44 0.48 0.45 0.47 0.53 0.60 0.63 0.83 1.00 0.94 0.94
0.21 0.12 0.13 0.11 0.09 0.08 0.11 0.11 0.10 0.12 0.13 0.11 0.11 0.13 0.14 0.15 0.15 0.15 0.15 0.15 0.15 0.13 0.13 0.13 0.12 0.11 0.12 0.15 0.21 0.28 0.32 0.34 0.38 0.46 0.48 0.46 0.47 0.51 0.59 0.62 0.70 0.74 0.81 0.90
0.14 0.10 0.09 0.07 0.06 0.07 0.10 0.11 0.10 0.11 0.13 0.14 0.12 0.12 0.15 0.16 0.16 0.16 0.14 0.14 0.16 0.15 0.14 0.13 0.11 0.12 0.14 0.17 0.22 0.29 0.36 0.39 0.43 0.47 0.47 0.47 0.46 0.49 0.55 0.54 0.57 0.61 0.67 0.75
0.10 0.10 0.10 0.06 0.06 0.06 0.08 0.09 0.09 0.08 0.09 0.12 0.13 0.13 0.15 0.16 0.16 0.16 0.15 0.14 0.15 0.15 0.14 0.13 0.12 0.13 0.16 0.20 0.25 0.31 0.36 0.41 0.46 0.47 0.47 0.45 0.43 0.45 0.51 0.56 0.62 0.65 0.70 0.77
0.09 0.10 0.10 0.07 0.05 0.05 0.06 0.07 0.09 0.09 0.09 0.09 0.11 0.14 0.15 0.17 0.16 0.15 0.15 0.14 0.13 0.13 0.14 0.14 0.14 0.15 0.16 0.21 0.26 0.32 0.39 0.42 0.46 0.48 0.46 0.41 0.40 0.43 0.46 0.51 0.59 0.68 0.75 0.82
0.10 0.08 0.07 0.07 0.06 0.05 0.06 0.07 0.09 0.10 0.10 0.11 0.11 0.12 0.15 0.17 0.17 0.16 0.15 0.15 0.15 0.14 0.15 0.16 0.16 0.17 0.19 0.22 0.28 0.34 0.41 0.50 0.54 0.51 0.48 0.43 0.42 0.45 0.48 0.52 0.59 0.66 0.75 0.81
0.16 0.12 0.09 0.08 0.07 0.07 0.08 0.09 0.11 0.10 0.10 0.11 0.11 0.11 0.13 0.16 0.17 0.17 0.17 0.16 0.17 0.16 0.16 0.17 0.19 0.20 0.21 0.25 0.33 0.41 0.46 0.49 0.54 0.54 0.51 0.50 0.52 0.53 0.54 0.58 0.64 0.67 0.71 0.81
0.16 0.14 0.12 0.12 0.12 0.11 0.09 0.09 0.09 0.10 0.11 0.12 0.11 0.12 0.14 0.17 0.21 0.21 0.20 0.20 0.19 0.18 0.17 0.19 0.23 0.24 0.24 0.29 0.37 0.44 0.48 0.50 0.49 0.51 0.56 0.59 0.61 0.61 0.62 0.63 0.65 0.68 0.69 0.75
0.12 0.12 0.11 0.11 0.12 0.13 0.11 0.11 0.10 0.10 0.11 0.12 0.13 0.14 0.16 0.20 0.24 0.27 0.25 0.23 0.22 0.22 0.23 0.26 0.32 0.29 0.30 0.37 0.46 0.48 0.52 0.55 0.53 0.54 0.58 0.65 0.64 0.59 0.63 0.65 0.69 0.72 0.73 0.74
0.11 0.12 0.13 0.12 0.12 0.13 0.13 0.12 0.11 0.11 0.12 0.13 0.15 0.16 0.17 0.20 0.24 0.28 0.29 0.27 0.27 0.30 0.31 0.34 0.34 0.33 0.37 0.46 0.57 0.56 0.55 0.56 0.57 0.61 0.64 0.64 0.64 0.64 0.65 0.67 0.74 0.80 0.79 0.77
0.14 0.16 0.16 0.15 0.14 0.12 0.13 0.13 0.13 0.14 0.15 0.17 0.21 0.23 0.24 0.25 0.28 0.31 0.32 0.31 0.31 0.33 0.35 0.38 0.38 0.43 0.51 0.60 0.62 0.56 0.55 0.56 0.60 0.66 0.70 0.69 0.70 0.70 0.70 0.72 0.77 0.82 0.83 0.81
0.18 0.20 0.20 0.19 0.18 0.16 0.15 0.16 0.17 0.18 0.18 0.20 0.23 0.27 0.29 0.30 0.32 0.34 0.35 0.37 0.39 0.43 0.40 0.36 0.40 0.52 0.64 0.64 0.56 0.54 0.54 0.57 0.62 0.69 0.75 0.75 0.76 0.76 0.74 0.76 0.82 0.84 0.82 0.81
0.22 0.23 0.24 0.24 0.25 0.25 0.22 0.23 0.24 0.24 0.26 0.27 0.29 0.32 0.35 0.37 0.39 0.41 0.40 0.38 0.41 0.43 0.41 0.39 0.44 0.55 0.62 0.56 0.52 0.52 0.54 0.57 0.63 0.71 0.76 0.78 0.80 0.81 0.82 0.83 0.87 0.88 0.87 0.83
0.25 0.26 0.28 0.29 0.29 0.28 0.27 0.27 0.27 0.29 0.32 0.33 0.35 0.38 0.40 0.40 0.39 0.41 0.43 0.43 0.44 0.44 0.43 0.45 0.48 0.54 0.58 0.53 0.51 0.54 0.57 0.61 0.69 0.77 0.81 0.83 0.84 0.84 0.86 0.91 0.95 0.92 0.86 0.81
0.29 0.30 0.30 0.31 0.32 0.33 0.32 0.29 0.27 0.28 0.29 0.31 0.32 0.33 0.36 0.42 0.47 0.48 0.44 0.43 0.44 0.45 0.44 0.47 0.51 0.55 0.54 0.52 0.52 0.57 0.61 0.68 0.82 0.94 0.95 0.92 0.88 0.88 0.88 0.92 0.97 0.94 0.89 0.83
0.36 0.37 0.38 0.39 0.40 0.40 0.38 0.36 0.34 0.33 0.34 0.33 0.31 0.32 0.35 0.41 0.47 0.50 0.48 0.45 0.46 0.48 0.48 0.51 0.53 0.55 0.54 0.54 0.56 0.60 0.65 0.72 0.85 0.93 0.90 0.87 0.86 0.89 0.90 0.92 0.92 0.92 0.90 0.86
0.41 0.40 0.39 0.41 0.41 0.42 0.45 0.46 0.46 0.46 0.46 0.45 0.42 0.38 0.40 0.44 0.48 0.49 0.47 0.46 0.47 0.48 0.51 0.54 0.56 0.55 0.56 0.58 0.62 0.66 0.68 0.72 0.85 0.95 0.94 0.90 0.89 0.89 0.88 0.89 0.90 0.91 0.91 0.89